Time,TemperatureF,DewpointF,PressureIn,WindDirection,WindDirectionDegrees,WindSpeedMPH,WindSpeedGustMPH,Humidity,HourlyPrecipIn,Conditions,Clouds,dailyrainin,SoftwareType,DateUTC
2013-02-15 00:00:00,60.2,59.6,29.89,ESE,122,0.0,8.0,98,0.01,,---,0.24,VWS V14.01,2013-02-15 05:00:00,
2013-02-15 00:05:00,60.2,59.6,29.91,ESE,122,0.0,1.0,98,0.01,,---,0.00,VWS V14.01,2013-02-15 05:05:00,
2013-02-15 00:10:00,60.1,59.5,29.91,ESE,122,0.0,4.0,98,0.01,,---,0.00,VWS V14.01,2013-02-15 05:10:00,
2013-02-15 00:15:00,60.1,59.5,29.91,ESE,122,0.0,4.0,98,0.01,,---,0.00,VWS V14.01,2013-02-15 05:15:00,
2013-02-15 00:20:00,60.1,59.5,29.92,ESE,122,0.0,4.0,98,0.01,,---,0.00,VWS V14.01,2013-02-15 05:20:00,
2013-02-15 00:25:00,60.1,59.5,29.92,ESE,122,0.0,4.0,98,0.01,,---,0.00,VWS V14.01,2013-02-15 05:25:00,
2013-02-15 00:30:00,60.1,59.5,29.92,ESE,122,0.0,4.0,98,0.01,,---,0.00,VWS V14.01,2013-02-15 05:30:00,
2013-02-15 00:35:00,60.1,59.5,29.91,ESE,122,0.0,4.0,98,0.01,,---,0.00,VWS V14.01,2013-02-15 05:35:00,
2013-02-15 00:40:00,59.9,59.3,29.91,ESE,122,0.0,4.0,98,0.01,,---,0.00,VWS V14.01,2013-02-15 05:40:00,
2013-02-15 00:45:00,59.9,59.3,29.91,ESE,122,0.0,4.0,98,0.02,,---,0.01,VWS V14.01,2013-02-15 05:45:00,
2013-02-15 00:50:00,59.9,59.3,29.89,ESE,115,1.0,7.0,98,0.02,,---,0.01,VWS V14.01,2013-02-15 05:50:00,
2013-02-15 00:55:00,59.8,59.2,29.89,ESE,117,3.0,7.0,98,0.03,,---,0.02,VWS V14.01,2013-02-15 05:55:00,
2013-02-15 00:56:00,59.8,59.2,29.89,ESE,117,0.0,7.0,98,0.03,,---,0.02,VWS V14.01,2013-02-15 05:56:00,
2013-02-15 01:00:00,59.8,59.2,29.89,ESE,117,0.0,7.0,98,0.03,,---,0.02,VWS V14.01,2013-02-15 06:00:00,
2013-02-15 01:01:00,59.8,59.2,29.89,ESE,117,0.0,7.0,98,0.03,,---,0.02,VWS V14.01,2013-02-15 06:01:00,
2013-02-15 01:05:00,59.8,59.2,29.92,ESE,117,0.0,0.0,98,0.02,,---,0.02,VWS V14.01,2013-02-15 06:05:00,
2013-02-15 01:06:00,59.8,59.2,29.92,ESE,117,0.0,0.0,98,0.02,,---,0.02,VWS V14.01,2013-02-15 06:06:00,
2013-02-15 01:10:00,59.8,59.5,29.92,ESE,117,0.0,0.0,99,0.02,,---,0.02,VWS V14.01,2013-02-15 06:10:00,
2013-02-15 01:11:00,59.8,59.5,29.92,ESE,117,0.0,0.0,99,0.02,,---,0.02,VWS V14.01,2013-02-15 06:11:00,
2013-02-15 01:15:00,59.6,59.0,29.92,ESE,117,0.0,0.0,98,0.03,,---,0.03,VWS V14.01,2013-02-15 06:15:00,
2013-02-15 01:16:00,59.6,59.3,29.92,ESE,117,0.0,0.0,99,0.03,,---,0.03,VWS V14.01,2013-02-15 06:16:00,
2013-02-15 01:20:00,59.8,59.5,29.92,ESE,117,0.0,0.0,99,0.03,,---,0.03,VWS V14.01,2013-02-15 06:20:00,
2013-02-15 01:21:00,59.8,59.5,29.92,ESE,117,0.0,0.0,99,0.03,,---,0.03,VWS V14.01,2013-02-15 06:21:00,
2013-02-15 01:25:00,59.8,59.5,29.92,ESE,117,0.0,0.0,99,0.03,,---,0.03,VWS V14.01,2013-02-15 06:25:00,
2013-02-15 01:26:00,59.8,59.5,29.92,ESE,117,0.0,0.0,99,0.03,,---,0.03,VWS V14.01,2013-02-15 06:26:00,
2013-02-15 01:30:00,59.8,59.5,29.92,ESE,117,0.0,0.0,99,0.03,,---,0.03,VWS V14.01,2013-02-15 06:30:00,
2013-02-15 01:31:00,59.8,59.5,29.92,ESE,117,0.0,0.0,99,0.03,,---,0.03,VWS V14.01,2013-02-15 06:31:00,
2013-02-15 01:35:00,59.8,59.5,29.95,ESE,117,0.0,0.0,99,0.03,,---,0.03,VWS V14.01,2013-02-15 06:35:00,
2013-02-15 01:36:00,59.8,59.5,29.95,ESE,117,0.0,0.0,99,0.03,,---,0.03,VWS V14.01,2013-02-15 06:36:00,
2013-02-15 01:40:00,59.8,59.5,29.95,ESE,117,0.0,0.0,99,0.04,,---,0.04,VWS V14.01,2013-02-15 06:40:00,
2013-02-15 01:41:00,59.8,59.5,29.95,ESE,117,0.0,0.0,99,0.04,,---,0.04,VWS V14.01,2013-02-15 06:41:00,
2013-02-15 01:45:00,59.8,59.5,29.95,ESE,117,0.0,0.0,99,0.04,,---,0.04,VWS V14.01,2013-02-15 06:45:00,
2013-02-15 01:46:00,59.8,59.5,29.95,ESE,117,0.0,0.0,99,0.04,,---,0.04,VWS V14.01,2013-02-15 06:46:00,
2013-02-15 01:50:00,59.8,59.5,29.95,ESE,117,0.0,1.0,99,0.04,,---,0.04,VWS V14.01,2013-02-15 06:50:00,
2013-02-15 01:51:00,59.8,59.5,29.95,ESE,117,0.0,1.0,99,0.04,,---,0.04,VWS V14.01,2013-02-15 06:51:00,
2013-02-15 01:55:00,59.8,59.5,29.95,ESE,117,0.0,1.0,99,0.05,,---,0.05,VWS V14.01,2013-02-15 06:55:00,
2013-02-15 01:56:00,59.8,59.5,29.95,ESE,117,0.0,1.0,99,0.05,,---,0.05,VWS V14.01,2013-02-15 06:56:00,
2013-02-15 02:00:00,59.9,59.6,29.95,ESE,117,0.0,1.0,99,0.06,,---,0.06,VWS V14.01,2013-02-15 07:00:00,
2013-02-15 02:01:00,59.9,59.6,29.95,ESE,117,0.0,1.0,99,0.06,,---,0.06,VWS V14.01,2013-02-15 07:01:00,
2013-02-15 02:06:00,59.9,59.6,29.92,ESE,117,0.0,0.0,99,0.04,,---,0.06,VWS V14.01,2013-02-15 07:06:00,
2013-02-15 02:11:00,59.9,59.6,29.92,ESE,117,0.0,0.0,99,0.05,,---,0.07,VWS V14.01,2013-02-15 07:11:00,
2013-02-15 02:16:00,59.8,59.5,29.92,ESE,117,0.0,0.0,99,0.05,,---,0.07,VWS V14.01,2013-02-15 07:16:00,
2013-02-15 02:21:00,59.8,59.5,29.92,ESE,117,0.0,0.0,99,0.05,,---,0.07,VWS V14.01,2013-02-15 07:21:00,
2013-02-15 02:22:00,59.8,59.5,29.92,ESE,117,0.0,0.0,99,0.05,,---,0.07,VWS V14.01,2013-02-15 07:22:00,
2013-02-15 02:26:00,59.8,59.5,29.92,ESE,117,0.0,0.0,99,0.05,,---,0.07,VWS V14.01,2013-02-15 07:26:00,
2013-02-15 02:27:00,59.8,59.5,29.92,ESE,117,0.0,0.0,99,0.05,,---,0.07,VWS V14.01,2013-02-15 07:27:00,
2013-02-15 02:31:00,59.6,59.3,29.92,ESE,117,0.0,0.0,99,0.05,,---,0.07,VWS V14.01,2013-02-15 07:31:00,
2013-02-15 02:32:00,59.6,59.3,29.92,ESE,117,0.0,0.0,99,0.05,,---,0.07,VWS V14.01,2013-02-15 07:32:00,
2013-02-15 02:36:00,59.6,59.3,29.91,ESE,117,0.0,0.0,99,0.05,,---,0.07,VWS V14.01,2013-02-15 07:36:00,
2013-02-15 02:37:00,59.6,59.3,29.91,ESE,117,0.0,0.0,99,0.05,,---,0.07,VWS V14.01,2013-02-15 07:37:00,
2013-02-15 02:41:00,59.6,59.3,29.91,ESE,117,0.0,0.0,99,0.05,,---,0.07,VWS V14.01,2013-02-15 07:41:00,
2013-02-15 02:42:00,59.6,59.3,29.91,ESE,117,0.0,0.0,99,0.05,,---,0.07,VWS V14.01,2013-02-15 07:42:00,
2013-02-15 02:46:00,59.6,59.3,29.91,ESE,117,0.0,0.0,99,0.05,,---,0.07,VWS V14.01,2013-02-15 07:46:00,
2013-02-15 02:47:00,59.6,59.3,29.91,ESE,117,0.0,0.0,99,0.05,,---,0.07,VWS V14.01,2013-02-15 07:47:00,
2013-02-15 02:51:00,59.6,59.3,29.91,ESE,117,0.0,0.0,99,0.05,,---,0.07,VWS V14.01,2013-02-15 07:51:00,
2013-02-15 02:52:00,59.6,59.3,29.91,ESE,117,0.0,0.0,99,0.05,,---,0.07,VWS V14.01,2013-02-15 07:52:00,
2013-02-15 02:56:00,59.6,59.3,29.91,ESE,117,0.0,0.0,99,0.05,,---,0.07,VWS V14.01,2013-02-15 07:56:00,
2013-02-15 02:57:00,59.6,59.3,29.91,ESE,117,0.0,0.0,99,0.05,,---,0.07,VWS V14.01,2013-02-15 07:57:00,
2013-02-15 03:01:00,59.6,59.3,29.91,ESE,117,0.0,0.0,99,0.05,,---,0.07,VWS V14.01,2013-02-15 08:01:00,
2013-02-15 03:02:00,59.6,59.3,29.91,ESE,117,0.0,0.0,99,0.05,,---,0.07,VWS V14.01,2013-02-15 08:02:00,
2013-02-15 03:06:00,59.6,59.3,29.91,ESE,117,0.0,0.0,99,0.01,,---,0.07,VWS V14.01,2013-02-15 08:06:00,
2013-02-15 03:07:00,59.6,59.3,29.91,ESE,117,0.0,0.0,99,0.01,,---,0.07,VWS V14.01,2013-02-15 08:07:00,
2013-02-15 03:11:00,59.6,59.3,29.91,ESE,117,0.0,0.0,99,0.01,,---,0.07,VWS V14.01,2013-02-15 08:11:00,
2013-02-15 03:12:00,59.6,59.3,29.91,ESE,117,0.0,0.0,99,0.01,,---,0.07,VWS V14.01,2013-02-15 08:12:00,
2013-02-15 03:16:00,59.8,59.5,29.91,ESE,117,0.0,1.0,99,0.01,,---,0.07,VWS V14.01,2013-02-15 08:16:00,
2013-02-15 03:17:00,59.8,59.5,29.91,ESE,117,0.0,1.0,99,0.01,,---,0.07,VWS V14.01,2013-02-15 08:17:00,
2013-02-15 03:21:00,59.6,59.3,29.89,ESE,117,0.0,2.0,99,0.01,,---,0.07,VWS V14.01,2013-02-15 08:21:00,
2013-02-15 03:22:00,59.6,59.3,29.89,ESE,117,0.0,2.0,99,0.01,,---,0.07,VWS V14.01,2013-02-15 08:22:00,
2013-02-15 03:27:00,59.6,59.3,29.89,ESE,117,0.0,2.0,99,0.01,,---,0.07,VWS V14.01,2013-02-15 08:27:00,
2013-02-15 03:32:00,59.6,59.3,29.89,ESE,117,2.0,2.0,99,0.01,,---,0.07,VWS V14.01,2013-02-15 08:32:00,
2013-02-15 03:37:00,59.5,59.2,29.89,ESE,117,0.0,2.0,99,0.01,,---,0.07,VWS V14.01,2013-02-15 08:37:00,
2013-02-15 03:42:00,59.5,59.2,29.89,ESE,117,0.0,2.0,99,0.01,,---,0.07,VWS V14.01,2013-02-15 08:42:00,
2013-02-15 03:47:00,59.5,59.2,29.89,ESE,117,0.0,2.0,99,0.01,,---,0.07,VWS V14.01,2013-02-15 08:47:00,
2013-02-15 03:52:00,59.6,59.3,29.91,ESE,117,0.0,2.0,99,0.01,,---,0.07,VWS V14.01,2013-02-15 08:52:00,
2013-02-15 03:57:00,59.6,59.3,29.91,ESE,117,0.0,2.0,99,0.01,,---,0.07,VWS V14.01,2013-02-15 08:57:00,
2013-02-15 04:02:00,59.6,59.3,29.91,ESE,117,0.0,2.0,99,0.02,,---,0.08,VWS V14.01,2013-02-15 09:02:00,
2013-02-15 04:07:00,59.6,59.3,29.91,ESE,117,0.0,0.0,99,0.01,,---,0.08,VWS V14.01,2013-02-15 09:07:00,
2013-02-15 04:12:00,59.6,59.3,29.91,ESE,117,0.0,0.0,99,0.01,,---,0.08,VWS V14.01,2013-02-15 09:12:00,
2013-02-15 04:13:00,59.6,59.3,29.91,ESE,117,0.0,0.0,99,0.01,,---,0.08,VWS V14.01,2013-02-15 09:13:00,
2013-02-15 04:17:00,59.8,59.5,29.91,ESE,117,0.0,0.0,99,0.01,,---,0.08,VWS V14.01,2013-02-15 09:17:00,
2013-02-15 04:18:00,59.8,59.5,29.92,ESE,117,0.0,0.0,99,0.01,,---,0.08,VWS V14.01,2013-02-15 09:18:00,
2013-02-15 04:22:00,59.8,59.5,29.92,ESE,117,0.0,0.0,99,0.01,,---,0.08,VWS V14.01,2013-02-15 09:22:00,
2013-02-15 04:23:00,59.8,59.5,29.92,ESE,117,0.0,0.0,99,0.01,,---,0.08,VWS V14.01,2013-02-15 09:23:00,
2013-02-15 04:27:00,59.8,59.5,29.92,ESE,117,0.0,0.0,99,0.01,,---,0.08,VWS V14.01,2013-02-15 09:27:00,
2013-02-15 04:28:00,59.8,59.5,29.92,ESE,117,0.0,0.0,99,0.01,,---,0.08,VWS V14.01,2013-02-15 09:28:00,
2013-02-15 04:32:00,59.8,59.5,29.92,ESE,117,0.0,0.0,99,0.01,,---,0.08,VWS V14.01,2013-02-15 09:32:00,
2013-02-15 04:33:00,59.8,59.5,29.92,ESE,117,0.0,0.0,99,0.01,,---,0.08,VWS V14.01,2013-02-15 09:33:00,
2013-02-15 04:37:00,59.8,59.5,29.92,ESE,117,0.0,0.0,99,0.01,,---,0.08,VWS V14.01,2013-02-15 09:37:00,
2013-02-15 04:38:00,59.8,59.5,29.92,ESE,117,0.0,0.0,99,0.01,,---,0.08,VWS V14.01,2013-02-15 09:38:00,
2013-02-15 04:42:00,59.8,59.5,29.92,ESE,117,0.0,0.0,99,0.01,,---,0.08,VWS V14.01,2013-02-15 09:42:00,
2013-02-15 04:43:00,59.8,59.5,29.92,ESE,117,0.0,0.0,99,0.01,,---,0.08,VWS V14.01,2013-02-15 09:43:00,
2013-02-15 04:47:00,59.8,59.5,29.93,ESE,117,0.0,0.0,99,0.01,,---,0.08,VWS V14.01,2013-02-15 09:47:00,
2013-02-15 04:48:00,59.8,59.5,29.93,ESE,117,0.0,0.0,99,0.01,,---,0.08,VWS V14.01,2013-02-15 09:48:00,
2013-02-15 04:52:00,59.8,59.5,29.93,ESE,117,0.0,0.0,99,0.02,,---,0.09,VWS V14.01,2013-02-15 09:52:00,
2013-02-15 04:53:00,59.8,59.5,29.93,ESE,117,0.0,0.0,99,0.02,,---,0.09,VWS V14.01,2013-02-15 09:53:00,
2013-02-15 04:57:00,59.6,59.3,29.93,ESE,117,0.0,0.0,99,0.02,,---,0.09,VWS V14.01,2013-02-15 09:57:00,
2013-02-15 04:58:00,59.5,59.2,29.93,ESE,117,0.0,1.0,99,0.02,,---,0.09,VWS V14.01,2013-02-15 09:58:00,
2013-02-15 05:02:00,59.3,59.0,29.91,ESE,117,0.0,1.0,99,0.02,,---,0.09,VWS V14.01,2013-02-15 10:02:00,
2013-02-15 05:03:00,59.3,59.0,29.91,ESE,117,0.0,1.0,99,0.02,,---,0.09,VWS V14.01,2013-02-15 10:03:00,
2013-02-15 05:08:00,59.3,59.0,29.91,ESE,117,1.0,4.0,99,0.01,,---,0.09,VWS V14.01,2013-02-15 10:08:00,
2013-02-15 05:13:00,59.3,59.0,29.91,ESE,117,0.0,4.0,99,0.01,,---,0.09,VWS V14.01,2013-02-15 10:13:00,
2013-02-15 05:18:00,59.3,59.0,29.92,North,358,2.0,6.0,99,0.01,,---,0.09,VWS V14.01,2013-02-15 10:18:00,
2013-02-15 05:23:00,58.9,58.6,29.92,North,7,4.0,7.0,99,0.01,,---,0.09,VWS V14.01,2013-02-15 10:23:00,
2013-02-15 05:28:00,58.7,58.4,29.92,NNE,14,1.0,7.0,99,0.01,,---,0.09,VWS V14.01,2013-02-15 10:28:00,
2013-02-15 05:33:00,58.6,58.3,29.92,NNE,14,0.0,7.0,99,0.01,,---,0.09,VWS V14.01,2013-02-15 10:33:00,
2013-02-15 05:38:00,58.6,58.3,29.92,NNE,29,5.0,7.0,99,0.01,,---,0.09,VWS V14.01,2013-02-15 10:38:00,
2013-02-15 05:43:00,58.4,58.1,29.92,NNE,30,0.0,7.0,99,0.01,,---,0.09,VWS V14.01,2013-02-15 10:43:00,
2013-02-15 05:48:00,58.4,58.1,29.92,NNE,30,1.0,7.0,99,0.01,,---,0.09,VWS V14.01,2013-02-15 10:48:00,
2013-02-15 05:49:00,58.4,58.1,29.92,NNE,32,2.0,7.0,99,0.01,,---,0.09,VWS V14.01,2013-02-15 10:49:00,
2013-02-15 05:53:00,58.3,58.0,29.92,NE,42,2.0,7.0,99,0.01,,---,0.09,VWS V14.01,2013-02-15 10:53:00,
2013-02-15 05:54:00,58.3,58.0,29.92,NE,42,5.0,7.0,99,0.01,,---,0.09,VWS V14.01,2013-02-15 10:54:00,
2013-02-15 05:58:00,58.3,58.0,29.92,NE,41,4.0,7.0,99,0.01,,---,0.09,VWS V14.01,2013-02-15 10:58:00,
2013-02-15 05:59:00,58.3,58.0,29.92,NE,41,4.0,7.0,99,0.01,,---,0.09,VWS V14.01,2013-02-15 10:59:00,
2013-02-15 06:03:00,58.3,58.0,29.92,NNE,22,4.0,7.0,99,0.01,,---,0.09,VWS V14.01,2013-02-15 11:03:00,
2013-02-15 06:04:00,58.3,58.0,29.92,NNE,22,1.0,4.0,99,0.00,,---,0.09,VWS V14.01,2013-02-15 11:04:00,
2013-02-15 06:08:00,58.3,58.0,29.92,NNE,21,0.0,6.0,99,0.00,,---,0.09,VWS V14.01,2013-02-15 11:08:00,
2013-02-15 06:09:00,58.3,58.0,29.92,NNE,23,4.0,6.0,99,0.00,,---,0.09,VWS V14.01,2013-02-15 11:09:00,
2013-02-15 06:13:00,58.1,57.8,29.92,North,7,6.0,7.0,99,0.00,,---,0.09,VWS V14.01,2013-02-15 11:13:00,
2013-02-15 06:14:00,58.1,57.8,29.92,North,0,5.0,7.0,99,0.00,,---,0.09,VWS V14.01,2013-02-15 11:14:00,
2013-02-15 06:18:00,58.1,57.8,29.92,North,353,5.0,7.0,99,0.00,,---,0.09,VWS V14.01,2013-02-15 11:18:00,
2013-02-15 06:19:00,58.1,57.8,29.92,North,353,1.0,7.0,99,0.00,,---,0.09,VWS V14.01,2013-02-15 11:19:00,
2013-02-15 06:23:00,58.1,57.8,29.92,North,353,2.0,7.0,99,0.00,,---,0.09,VWS V14.01,2013-02-15 11:23:00,
2013-02-15 06:24:00,58.1,57.8,29.92,North,353,5.0,7.0,99,0.00,,---,0.09,VWS V14.01,2013-02-15 11:24:00,
2013-02-15 06:28:00,58.0,57.7,29.92,North,353,0.0,7.0,99,0.00,,---,0.09,VWS V14.01,2013-02-15 11:28:00,
2013-02-15 06:29:00,58.0,57.7,29.92,North,353,0.0,7.0,99,0.00,,---,0.09,VWS V14.01,2013-02-15 11:29:00,
2013-02-15 06:33:00,58.0,57.7,29.92,North,353,0.0,7.0,99,0.00,,---,0.09,VWS V14.01,2013-02-15 11:33:00,
2013-02-15 06:34:00,58.0,57.7,29.92,North,353,0.0,7.0,99,0.00,,---,0.09,VWS V14.01,2013-02-15 11:34:00,
2013-02-15 06:38:00,58.0,57.7,29.92,North,353,2.0,7.0,99,0.00,,---,0.09,VWS V14.01,2013-02-15 11:38:00,
2013-02-15 06:39:00,58.0,57.7,29.92,North,353,1.0,7.0,99,0.00,,---,0.09,VWS V14.01,2013-02-15 11:39:00,
2013-02-15 06:43:00,58.0,57.7,29.92,North,353,2.0,7.0,99,0.00,,---,0.09,VWS V14.01,2013-02-15 11:43:00,
2013-02-15 06:44:00,58.0,57.7,29.92,North,353,0.0,7.0,99,0.00,,---,0.09,VWS V14.01,2013-02-15 11:44:00,
2013-02-15 06:48:00,58.0,57.7,29.94,North,353,0.0,7.0,99,0.00,,---,0.09,VWS V14.01,2013-02-15 11:48:00,
2013-02-15 06:49:00,58.0,57.7,29.94,North,353,0.0,7.0,99,0.00,,---,0.09,VWS V14.01,2013-02-15 11:49:00,
2013-02-15 06:53:00,58.0,57.7,29.94,NW,316,4.0,7.0,99,0.00,,---,0.09,VWS V14.01,2013-02-15 11:53:00,
2013-02-15 06:54:00,58.0,57.7,29.94,NW,316,1.0,7.0,99,0.00,,---,0.09,VWS V14.01,2013-02-15 11:54:00,
2013-02-15 06:55:00,58.0,57.7,29.94,NW,316,0.0,7.0,99,0.00,,---,0.09,VWS V14.01,2013-02-15 11:55:00,
2013-02-15 06:58:00,58.0,57.7,29.94,North,352,3.0,7.0,99,0.00,,---,0.09,VWS V14.01,2013-02-15 11:58:00,
2013-02-15 06:59:00,58.0,57.7,29.94,North,352,4.0,7.0,99,0.00,,---,0.09,VWS V14.01,2013-02-15 11:59:00,
2013-02-15 07:00:00,58.0,57.7,29.94,North,352,2.0,7.0,99,0.00,,---,0.09,VWS V14.01,2013-02-15 12:00:00,
2013-02-15 07:04:00,57.8,57.5,29.95,North,352,0.0,0.0,99,0.00,,---,0.09,VWS V14.01,2013-02-15 12:04:00,
2013-02-15 07:05:00,57.8,57.5,29.95,North,352,0.0,0.0,99,0.00,,---,0.09,VWS V14.01,2013-02-15 12:05:00,
2013-02-15 07:09:00,57.8,57.5,29.95,NW,323,4.0,8.0,99,0.00,,---,0.09,VWS V14.01,2013-02-15 12:09:00,
2013-02-15 07:10:00,57.8,57.5,29.95,NW,324,6.0,8.0,99,0.00,,---,0.09,VWS V14.01,2013-02-15 12:10:00,
2013-02-15 07:14:00,57.6,57.3,29.95,NNW,335,1.0,8.0,99,0.00,,---,0.09,VWS V14.01,2013-02-15 12:14:00,
2013-02-15 07:15:00,57.6,57.3,29.95,NNW,335,3.0,8.0,99,0.00,,---,0.09,VWS V14.01,2013-02-15 12:15:00,
2013-02-15 07:19:00,57.6,57.3,29.95,NNW,333,0.0,8.0,99,0.00,,---,0.09,VWS V14.01,2013-02-15 12:19:00,
2013-02-15 07:20:00,57.6,57.3,29.95,NNW,333,2.0,8.0,99,0.00,,---,0.09,VWS V14.01,2013-02-15 12:20:00,
2013-02-15 07:24:00,57.6,57.3,29.95,NW,326,0.0,8.0,99,0.00,,---,0.09,VWS V14.01,2013-02-15 12:24:00,
2013-02-15 07:25:00,57.6,57.3,29.95,NW,326,1.0,8.0,99,0.00,,---,0.09,VWS V14.01,2013-02-15 12:25:00,
2013-02-15 07:29:00,57.5,57.2,29.95,NNW,347,1.0,8.0,99,0.00,,---,0.09,VWS V14.01,2013-02-15 12:29:00,
2013-02-15 07:30:00,57.5,57.2,29.95,NNW,348,5.0,8.0,99,0.00,,---,0.09,VWS V14.01,2013-02-15 12:30:00,
2013-02-15 07:34:00,57.5,57.2,29.94,North,0,6.0,8.0,99,0.00,,---,0.09,VWS V14.01,2013-02-15 12:34:00,
2013-02-15 07:35:00,57.5,57.2,29.94,North,357,4.0,8.0,99,0.00,,---,0.09,VWS V14.01,2013-02-15 12:35:00,
2013-02-15 07:39:00,57.5,57.2,29.94,North,356,3.0,8.0,99,0.00,,---,0.09,VWS V14.01,2013-02-15 12:39:00,
2013-02-15 07:40:00,57.5,57.2,29.94,North,356,3.0,8.0,99,0.00,,---,0.09,VWS V14.01,2013-02-15 12:40:00,
2013-02-15 07:44:00,57.5,57.2,29.94,North,356,0.0,8.0,99,0.00,,---,0.09,VWS V14.01,2013-02-15 12:44:00,
2013-02-15 07:45:00,57.5,57.2,29.94,North,356,0.0,8.0,99,0.00,,---,0.09,VWS V14.01,2013-02-15 12:45:00,
2013-02-15 07:49:00,57.5,57.2,29.95,North,356,0.0,8.0,99,0.00,,---,0.09,VWS V14.01,2013-02-15 12:49:00,
2013-02-15 07:50:00,57.5,57.2,29.95,North,356,0.0,8.0,99,0.00,,---,0.09,VWS V14.01,2013-02-15 12:50:00,
2013-02-15 07:54:00,57.6,57.3,29.95,North,356,1.0,8.0,99,0.00,,---,0.09,VWS V14.01,2013-02-15 12:54:00,
2013-02-15 07:55:00,57.6,57.3,29.95,North,356,0.0,8.0,99,0.00,,---,0.09,VWS V14.01,2013-02-15 12:55:00,
2013-02-15 07:59:00,57.8,57.5,29.95,North,354,4.0,8.0,99,0.00,,---,0.09,VWS V14.01,2013-02-15 12:59:00,
2013-02-15 08:00:00,57.8,57.5,29.95,North,354,2.0,8.0,99,0.00,,---,0.09,VWS V14.01,2013-02-15 13:00:00,
2013-02-15 08:04:00,57.8,57.5,29.96,NNW,334,4.0,7.0,99,0.00,,---,0.09,VWS V14.01,2013-02-15 13:04:00,
2013-02-15 08:05:00,57.8,57.5,29.96,NW,326,6.0,9.0,99,0.00,,---,0.09,VWS V14.01,2013-02-15 13:05:00,
2013-02-15 08:09:00,57.6,57.3,29.96,NNE,19,5.0,9.0,99,0.00,,---,0.09,VWS V14.01,2013-02-15 13:09:00,
2013-02-15 08:10:00,57.6,57.3,29.96,NNE,26,0.0,9.0,99,0.00,,---,0.09,VWS V14.01,2013-02-15 13:10:00,
2013-02-15 08:14:00,57.8,57.5,29.96,NNE,26,1.0,9.0,99,0.00,,---,0.09,VWS V14.01,2013-02-15 13:14:00,
2013-02-15 08:15:00,57.8,57.5,29.96,NNE,26,2.0,9.0,99,0.00,,---,0.09,VWS V14.01,2013-02-15 13:15:00,
2013-02-15 08:19:00,57.6,57.3,29.95,NNE,20,0.0,9.0,99,0.00,,---,0.09,VWS V14.01,2013-02-15 13:19:00,
2013-02-15 08:20:00,57.6,57.3,29.95,North,0,0.0,9.0,99,0.00,,---,0.09,VWS V14.01,2013-02-15 13:20:00,
2013-02-15 08:24:00,57.6,57.3,29.95,North,358,4.0,9.0,99,0.00,,---,0.09,VWS V14.01,2013-02-15 13:24:00,
2013-02-15 08:25:00,57.6,57.3,29.95,North,358,5.0,9.0,99,0.00,,---,0.09,VWS V14.01,2013-02-15 13:25:00,
2013-02-15 08:29:00,57.6,57.3,29.95,North,6,6.0,9.0,99,0.00,,---,0.09,VWS V14.01,2013-02-15 13:29:00,
2013-02-15 08:30:00,57.6,57.3,29.95,North,6,5.0,9.0,99,0.00,,---,0.09,VWS V14.01,2013-02-15 13:30:00,
2013-02-15 08:34:00,57.6,57.3,29.96,North,0,2.0,9.0,99,0.00,,---,0.09,VWS V14.01,2013-02-15 13:34:00,
2013-02-15 08:35:00,57.6,57.3,29.96,North,0,4.0,9.0,99,0.00,,---,0.09,VWS V14.01,2013-02-15 13:35:00,
2013-02-15 08:36:00,57.6,57.3,29.96,North,0,4.0,9.0,99,0.00,,---,0.09,VWS V14.01,2013-02-15 13:36:00,
2013-02-15 08:39:00,57.8,57.5,29.96,North,0,5.0,9.0,99,0.00,,---,0.09,VWS V14.01,2013-02-15 13:39:00,
2013-02-15 08:40:00,57.8,57.5,29.96,North,0,3.0,9.0,99,0.00,,---,0.09,VWS V14.01,2013-02-15 13:40:00,
2013-02-15 08:41:00,57.8,57.5,29.96,North,0,0.0,9.0,99,0.00,,---,0.09,VWS V14.01,2013-02-15 13:41:00,
2013-02-15 08:44:00,58.0,57.7,29.96,North,0,0.0,9.0,99,0.00,,---,0.09,VWS V14.01,2013-02-15 13:44:00,
2013-02-15 08:45:00,58.0,57.7,29.96,North,0,0.0,9.0,99,0.00,,---,0.09,VWS V14.01,2013-02-15 13:45:00,
2013-02-15 08:46:00,58.1,57.8,29.96,North,0,0.0,9.0,99,0.00,,---,0.09,VWS V14.01,2013-02-15 13:46:00,
2013-02-15 08:49:00,58.1,57.8,29.98,North,0,0.0,9.0,99,0.00,,---,0.09,VWS V14.01,2013-02-15 13:49:00,
2013-02-15 08:50:00,58.1,57.8,29.98,North,0,0.0,9.0,99,0.00,,---,0.09,VWS V14.01,2013-02-15 13:50:00,
2013-02-15 08:51:00,58.1,57.8,29.98,North,0,0.0,9.0,99,0.00,,---,0.09,VWS V14.01,2013-02-15 13:51:00,
2013-02-15 08:54:00,58.3,58.0,29.98,North,0,1.0,9.0,99,0.00,,---,0.09,VWS V14.01,2013-02-15 13:54:00,
2013-02-15 08:55:00,58.3,58.0,29.98,North,0,1.0,9.0,99,0.00,,---,0.09,VWS V14.01,2013-02-15 13:55:00,
2013-02-15 08:56:00,58.3,58.0,29.98,North,0,0.0,9.0,99,0.00,,---,0.09,VWS V14.01,2013-02-15 13:56:00,
2013-02-15 08:59:00,58.3,57.7,29.98,North,0,0.0,9.0,98,0.00,,---,0.09,VWS V14.01,2013-02-15 13:59:00,
2013-02-15 09:00:00,58.3,57.7,29.98,North,0,0.0,9.0,98,0.00,,---,0.09,VWS V14.01,2013-02-15 14:00:00,
2013-02-15 09:01:00,58.3,57.7,29.98,North,0,0.0,9.0,98,0.00,,---,0.09,VWS V14.01,2013-02-15 14:01:00,
2013-02-15 09:04:00,58.4,57.8,29.98,North,0,0.0,1.0,98,0.00,,---,0.09,VWS V14.01,2013-02-15 14:04:00,
2013-02-15 09:05:00,58.4,57.8,29.98,North,0,0.0,1.0,98,0.00,,---,0.09,VWS V14.01,2013-02-15 14:05:00,
2013-02-15 09:06:00,58.4,57.8,29.98,North,0,0.0,1.0,98,0.00,,---,0.09,VWS V14.01,2013-02-15 14:06:00,
2013-02-15 09:09:00,58.4,57.8,29.98,North,0,1.0,4.0,98,0.00,,---,0.09,VWS V14.01,2013-02-15 14:09:00,
2013-02-15 09:10:00,58.6,58.0,29.98,North,0,0.0,4.0,98,0.00,,---,0.09,VWS V14.01,2013-02-15 14:10:00,
2013-02-15 09:11:00,58.6,58.3,29.98,North,0,0.0,4.0,99,0.00,,---,0.09,VWS V14.01,2013-02-15 14:11:00,
2013-02-15 09:14:00,58.7,58.4,29.98,North,0,0.0,4.0,99,0.00,,---,0.09,VWS V14.01,2013-02-15 14:14:00,
2013-02-15 09:15:00,58.7,58.4,29.98,North,0,0.0,4.0,99,0.00,,---,0.09,VWS V14.01,2013-02-15 14:15:00,
2013-02-15 09:16:00,58.7,58.4,29.98,North,0,0.0,4.0,99,0.00,,---,0.09,VWS V14.01,2013-02-15 14:16:00,
2013-02-15 09:20:00,58.9,58.6,29.99,NNW,328,1.0,8.0,99,0.00,,---,0.09,VWS V14.01,2013-02-15 14:20:00,
2013-02-15 09:21:00,58.9,58.6,29.99,NNW,328,1.0,8.0,99,0.00,,---,0.09,VWS V14.01,2013-02-15 14:21:00,
2013-02-15 09:25:00,58.9,58.3,29.99,NNW,339,8.0,8.0,98,0.00,,---,0.09,VWS V14.01,2013-02-15 14:25:00,
2013-02-15 09:26:00,58.9,58.3,29.99,NNW,333,6.0,8.0,98,0.00,,---,0.09,VWS V14.01,2013-02-15 14:26:00,
2013-02-15 09:30:00,58.9,58.3,29.99,NW,320,0.0,9.0,98,0.00,,---,0.09,VWS V14.01,2013-02-15 14:30:00,
2013-02-15 09:31:00,58.9,58.3,29.99,NW,321,6.0,9.0,98,0.00,,---,0.09,VWS V14.01,2013-02-15 14:31:00,
2013-02-15 09:35:00,58.7,58.1,29.99,NNW,339,3.0,9.0,98,0.00,,---,0.09,VWS V14.01,2013-02-15 14:35:00,
2013-02-15 09:36:00,58.6,58.0,29.99,NNW,338,2.0,9.0,98,0.00,,---,0.09,VWS V14.01,2013-02-15 14:36:00,
2013-02-15 09:40:00,58.7,58.1,29.99,NNW,341,2.0,9.0,98,0.00,,---,0.09,VWS V14.01,2013-02-15 14:40:00,
2013-02-15 09:41:00,58.7,58.1,29.99,NNW,340,1.0,9.0,98,0.00,,---,0.09,VWS V14.01,2013-02-15 14:41:00,
2013-02-15 09:45:00,58.9,58.3,29.99,NNW,341,0.0,9.0,98,0.00,,---,0.09,VWS V14.01,2013-02-15 14:45:00,
2013-02-15 09:46:00,58.9,58.3,29.99,North,358,7.0,9.0,98,0.00,,---,0.09,VWS V14.01,2013-02-15 14:46:00,
2013-02-15 09:50:00,58.7,58.1,29.99,NNW,342,0.0,9.0,98,0.00,,---,0.09,VWS V14.01,2013-02-15 14:50:00,
2013-02-15 09:51:00,58.9,58.3,29.99,NNW,342,2.0,9.0,98,0.00,,---,0.09,VWS V14.01,2013-02-15 14:51:00,
2013-02-15 09:52:00,58.9,58.3,29.99,NNW,342,5.0,9.0,98,0.00,,---,0.09,VWS V14.01,2013-02-15 14:52:00,
2013-02-15 09:55:00,58.9,58.3,29.99,North,1,6.0,9.0,98,0.00,,---,0.09,VWS V14.01,2013-02-15 14:55:00,
2013-02-15 09:56:00,58.7,57.8,29.99,North,3,4.0,9.0,97,0.00,,---,0.09,VWS V14.01,2013-02-15 14:56:00,
2013-02-15 09:57:00,58.7,57.8,29.99,North,3,5.0,9.0,97,0.00,,---,0.09,VWS V14.01,2013-02-15 14:57:00,
2013-02-15 10:00:00,59.0,58.2,29.99,North,11,0.0,9.0,97,0.00,,---,0.09,VWS V14.01,2013-02-15 15:00:00,
2013-02-15 10:01:00,59.2,58.3,29.99,North,3,4.0,9.0,97,0.00,,---,0.09,VWS V14.01,2013-02-15 15:01:00,
2013-02-15 10:02:00,59.2,58.3,29.99,North,3,1.0,9.0,97,0.00,,---,0.09,VWS V14.01,2013-02-15 15:02:00,
2013-02-15 10:05:00,59.5,58.7,29.99,NW,308,7.0,9.0,97,0.00,,---,0.09,VWS V14.01,2013-02-15 15:05:00,
2013-02-15 10:06:00,59.5,58.7,29.99,NNW,332,7.0,9.0,97,0.00,,---,0.09,VWS V14.01,2013-02-15 15:06:00,
2013-02-15 10:07:00,59.5,58.7,29.99,NNW,332,4.0,9.0,97,0.00,,---,0.09,VWS V14.01,2013-02-15 15:07:00,
2013-02-15 10:10:00,59.5,58.7,29.99,North,11,4.0,9.0,97,0.00,,---,0.09,VWS V14.01,2013-02-15 15:10:00,
2013-02-15 10:11:00,59.5,58.7,29.99,North,10,2.0,9.0,97,0.00,,---,0.09,VWS V14.01,2013-02-15 15:11:00,
2013-02-15 10:12:00,59.5,58.4,29.99,NNW,345,7.0,9.0,96,0.00,,---,0.09,VWS V14.01,2013-02-15 15:12:00,
2013-02-15 10:15:00,59.3,58.2,29.99,North,349,6.0,9.0,96,0.00,,---,0.09,VWS V14.01,2013-02-15 15:15:00,
2013-02-15 10:16:00,59.3,58.2,29.99,North,349,4.0,9.0,96,0.00,,---,0.09,VWS V14.01,2013-02-15 15:16:00,
2013-02-15 10:17:00,59.3,58.2,29.99,North,349,4.0,9.0,96,0.00,,---,0.09,VWS V14.01,2013-02-15 15:17:00,
2013-02-15 10:20:00,59.5,58.4,29.99,North,349,0.0,9.0,96,0.00,,---,0.09,VWS V14.01,2013-02-15 15:20:00,
2013-02-15 10:21:00,59.5,58.4,29.99,NE,35,8.0,9.0,96,0.00,,---,0.09,VWS V14.01,2013-02-15 15:21:00,
2013-02-15 10:22:00,59.5,58.1,29.99,NE,35,2.0,9.0,95,0.00,,---,0.09,VWS V14.01,2013-02-15 15:22:00,
2013-02-15 10:25:00,59.6,58.5,29.99,North,0,5.0,9.0,96,0.00,,---,0.09,VWS V14.01,2013-02-15 15:25:00,
2013-02-15 10:26:00,59.6,58.2,29.99,North,0,0.0,9.0,95,0.00,,---,0.09,VWS V14.01,2013-02-15 15:26:00,
2013-02-15 10:27:00,59.6,58.2,29.99,North,0,1.0,9.0,95,0.00,,---,0.09,VWS V14.01,2013-02-15 15:27:00,
2013-02-15 10:30:00,59.9,58.5,29.99,NW,326,6.0,9.0,95,0.00,,---,0.09,VWS V14.01,2013-02-15 15:30:00,
2013-02-15 10:31:00,59.8,58.1,29.99,North,1,5.0,9.0,94,0.00,,---,0.09,VWS V14.01,2013-02-15 15:31:00,
2013-02-15 10:32:00,59.8,58.1,29.99,North,357,3.0,9.0,94,0.00,,---,0.09,VWS V14.01,2013-02-15 15:32:00,
2013-02-15 10:35:00,59.9,58.2,29.99,North,354,4.0,9.0,94,0.00,,---,0.09,VWS V14.01,2013-02-15 15:35:00,
2013-02-15 10:36:00,59.9,58.2,29.99,NW,304,0.0,9.0,94,0.00,,---,0.09,VWS V14.01,2013-02-15 15:36:00,
2013-02-15 10:37:00,59.9,58.2,29.99,North,0,4.0,9.0,94,0.00,,---,0.09,VWS V14.01,2013-02-15 15:37:00,
2013-02-15 10:40:00,59.8,57.8,29.99,North,9,5.0,9.0,93,0.00,,---,0.09,VWS V14.01,2013-02-15 15:40:00,
2013-02-15 10:41:00,59.8,57.8,29.99,North,11,4.0,9.0,93,0.00,,---,0.09,VWS V14.01,2013-02-15 15:41:00,
2013-02-15 10:42:00,59.8,57.8,29.99,North,11,2.0,9.0,93,0.00,,---,0.09,VWS V14.01,2013-02-15 15:42:00,
2013-02-15 10:45:00,60.1,58.1,29.99,North,0,6.0,9.0,93,0.00,,---,0.09,VWS V14.01,2013-02-15 15:45:00,
2013-02-15 10:46:00,59.9,57.9,29.99,North,358,4.0,9.0,93,0.00,,---,0.09,VWS V14.01,2013-02-15 15:46:00,
2013-02-15 10:47:00,60.1,57.8,29.99,NW,321,2.0,9.0,92,0.00,,---,0.09,VWS V14.01,2013-02-15 15:47:00,
2013-02-15 10:50:00,60.4,58.1,29.98,NW,323,0.0,9.0,92,0.00,,---,0.09,VWS V14.01,2013-02-15 15:50:00,
2013-02-15 10:51:00,60.5,58.2,29.98,NW,323,5.0,9.0,92,0.00,,---,0.09,VWS V14.01,2013-02-15 15:51:00,
2013-02-15 10:52:00,60.5,58.2,29.98,NW,321,3.0,9.0,92,0.00,,---,0.09,VWS V14.01,2013-02-15 15:52:00,
2013-02-15 10:55:00,60.7,58.1,29.98,NW,326,1.0,9.0,91,0.01,,---,0.10,VWS V14.01,2013-02-15 15:55:00,
2013-02-15 10:56:00,60.9,58.3,29.98,NW,326,0.0,9.0,91,0.01,,---,0.10,VWS V14.01,2013-02-15 15:56:00,
2013-02-15 10:57:00,61.0,58.7,29.98,NW,326,6.0,9.0,92,0.01,,---,0.10,VWS V14.01,2013-02-15 15:57:00,
2013-02-15 11:00:00,61.2,58.6,29.98,North,0,3.0,9.0,91,0.01,,---,0.10,VWS V14.01,2013-02-15 16:00:00,
2013-02-15 11:01:00,61.0,58.0,29.98,North,0,4.0,9.0,90,0.01,,---,0.10,VWS V14.01,2013-02-15 16:01:00,
2013-02-15 11:02:00,61.0,58.0,29.98,NNE,19,5.0,9.0,90,0.01,,---,0.10,VWS V14.01,2013-02-15 16:02:00,
2013-02-15 11:05:00,61.2,57.9,29.99,NW,308,1.0,6.0,89,0.01,,---,0.10,VWS V14.01,2013-02-15 16:05:00,
2013-02-15 11:06:00,61.3,58.3,29.99,NW,311,0.0,6.0,90,0.01,,---,0.10,VWS V14.01,2013-02-15 16:06:00,
2013-02-15 11:07:00,61.6,58.6,29.99,NW,311,0.0,6.0,90,0.01,,---,0.10,VWS V14.01,2013-02-15 16:07:00,
2013-02-15 11:11:00,61.8,58.2,29.99,NNW,331,4.0,6.0,88,0.01,,---,0.10,VWS V14.01,2013-02-15 16:11:00,
2013-02-15 11:12:00,62.0,58.4,29.99,NNW,331,0.0,6.0,88,0.01,,---,0.10,VWS V14.01,2013-02-15 16:12:00,
2013-02-15 11:16:00,62.3,58.4,29.99,NNW,333,1.0,9.0,87,0.01,,---,0.10,VWS V14.01,2013-02-15 16:16:00,
2013-02-15 11:17:00,62.3,58.4,29.99,NW,319,3.0,9.0,87,0.01,,---,0.10,VWS V14.01,2013-02-15 16:17:00,
2013-02-15 11:21:00,62.6,58.7,29.99,NW,326,5.0,9.0,87,0.01,,---,0.10,VWS V14.01,2013-02-15 16:21:00,
2013-02-15 11:22:00,62.7,58.8,29.99,NW,314,6.0,9.0,87,0.01,,---,0.10,VWS V14.01,2013-02-15 16:22:00,
2013-02-15 11:26:00,63.1,58.8,29.99,NW,326,4.0,9.0,86,0.01,,---,0.10,VWS V14.01,2013-02-15 16:26:00,
2013-02-15 11:27:00,63.1,58.8,29.99,NNW,330,5.0,9.0,86,0.01,,---,0.10,VWS V14.01,2013-02-15 16:27:00,
2013-02-15 11:31:00,62.9,58.3,29.99,North,357,5.0,9.0,85,0.01,,---,0.10,VWS V14.01,2013-02-15 16:31:00,
2013-02-15 11:32:00,62.7,58.1,29.99,North,357,0.0,9.0,85,0.01,,---,0.10,VWS V14.01,2013-02-15 16:32:00,
2013-02-15 11:36:00,63.1,58.5,29.99,North,0,0.0,9.0,85,0.01,,---,0.10,VWS V14.01,2013-02-15 16:36:00,
2013-02-15 11:37:00,63.2,59.0,29.99,North,1,4.0,9.0,86,0.01,,---,0.10,VWS V14.01,2013-02-15 16:37:00,
2013-02-15 11:41:00,63.1,58.2,29.99,NNW,347,3.0,9.0,84,0.01,,---,0.10,VWS V14.01,2013-02-15 16:41:00,
2013-02-15 11:42:00,62.9,57.3,29.99,North,349,4.0,9.0,82,0.01,,---,0.10,VWS V14.01,2013-02-15 16:42:00,
2013-02-15 11:46:00,62.7,57.5,29.99,NNE,12,5.0,9.0,83,0.01,,---,0.10,VWS V14.01,2013-02-15 16:46:00,
2013-02-15 11:47:00,62.6,57.0,29.98,North,358,5.0,9.0,82,0.01,,---,0.10,VWS V14.01,2013-02-15 16:47:00,
2013-02-15 11:48:00,62.6,57.0,29.98,North,358,5.0,9.0,82,0.01,,---,0.10,VWS V14.01,2013-02-15 16:48:00,
2013-02-15 11:51:00,63.1,58.2,29.98,NW,313,4.0,9.0,84,0.01,,---,0.10,VWS V14.01,2013-02-15 16:51:00,
2013-02-15 11:52:00,63.2,58.0,29.98,NW,320,6.0,9.0,83,0.01,,---,0.10,VWS V14.01,2013-02-15 16:52:00,
2013-02-15 11:53:00,63.2,58.0,29.98,NW,321,4.0,9.0,83,0.01,,---,0.10,VWS V14.01,2013-02-15 16:53:00,
2013-02-15 11:56:00,63.5,58.2,29.98,NNW,338,5.0,9.0,83,0.01,,---,0.10,VWS V14.01,2013-02-15 16:56:00,
2013-02-15 11:58:00,63.7,58.5,29.98,NNW,332,0.0,9.0,83,0.01,,---,0.10,VWS V14.01,2013-02-15 16:58:00,
2013-02-15 12:01:00,63.9,58.6,29.98,NNW,331,4.0,9.0,83,0.01,,---,0.10,VWS V14.01,2013-02-15 17:01:00,
2013-02-15 12:03:00,64.0,58.7,29.98,NNW,332,6.0,9.0,83,0.01,,---,0.10,VWS V14.01,2013-02-15 17:03:00,
2013-02-15 12:06:00,63.9,58.0,29.98,NW,319,6.0,10.0,81,0.00,,---,0.10,VWS V14.01,2013-02-15 17:06:00,
2013-02-15 12:08:00,63.9,58.3,29.98,NNW,332,5.0,10.0,82,0.00,,---,0.10,VWS V14.01,2013-02-15 17:08:00,
2013-02-15 12:11:00,64.0,58.1,29.98,WNW,296,6.0,10.0,81,0.00,,---,0.10,VWS V14.01,2013-02-15 17:11:00,
2013-02-15 12:13:00,64.0,58.1,29.98,WNW,297,0.0,10.0,81,0.00,,---,0.10,VWS V14.01,2013-02-15 17:13:00,
2013-02-15 12:16:00,64.3,58.3,29.98,WNW,297,0.0,10.0,81,0.00,,---,0.10,VWS V14.01,2013-02-15 17:16:00,
2013-02-15 12:18:00,64.5,58.5,29.97,WNW,300,3.0,10.0,81,0.00,,---,0.10,VWS V14.01,2013-02-15 17:18:00,
2013-02-15 12:21:00,64.8,58.5,29.97,NNW,328,5.0,10.0,80,0.00,,---,0.10,VWS V14.01,2013-02-15 17:21:00,
2013-02-15 12:23:00,64.8,58.5,29.97,NNW,328,0.0,10.0,80,0.00,,---,0.10,VWS V14.01,2013-02-15 17:23:00,
2013-02-15 12:26:00,65.0,58.3,29.97,North,352,4.0,10.0,79,0.00,,---,0.10,VWS V14.01,2013-02-15 17:26:00,
2013-02-15 12:28:00,65.0,58.7,29.97,NNW,340,2.0,10.0,80,0.00,,---,0.10,VWS V14.01,2013-02-15 17:28:00,
2013-02-15 12:31:00,65.3,58.6,29.97,WNW,293,9.0,10.0,79,0.00,,---,0.10,VWS V14.01,2013-02-15 17:31:00,
2013-02-15 12:32:00,65.3,58.6,29.97,NNW,334,7.0,10.0,79,0.00,,---,0.10,VWS V14.01,2013-02-15 17:32:00,
2013-02-15 12:33:00,65.5,58.8,29.97,NW,323,2.0,10.0,79,0.00,,---,0.10,VWS V14.01,2013-02-15 17:33:00,
2013-02-15 12:37:00,65.6,58.2,29.97,NW,318,0.0,10.0,77,0.00,,---,0.10,VWS V14.01,2013-02-15 17:37:00,
2013-02-15 12:38:00,65.8,58.4,29.97,NNW,329,6.0,10.0,77,0.00,,---,0.10,VWS V14.01,2013-02-15 17:38:00,
2013-02-15 12:42:00,66.3,58.5,29.97,NNW,338,5.0,10.0,76,0.00,,---,0.10,VWS V14.01,2013-02-15 17:42:00,
2013-02-15 12:43:00,66.4,58.6,29.97,NNW,338,0.0,10.0,76,0.00,,---,0.10,VWS V14.01,2013-02-15 17:43:00,
2013-02-15 12:47:00,66.8,58.6,29.97,NW,325,4.0,10.0,75,0.00,,---,0.10,VWS V14.01,2013-02-15 17:47:00,
2013-02-15 12:48:00,66.8,58.3,29.96,NW,325,4.0,10.0,74,0.00,,---,0.10,VWS V14.01,2013-02-15 17:48:00,
2013-02-15 12:52:00,67.1,58.2,29.96,North,358,5.0,10.0,73,0.00,,---,0.10,VWS V14.01,2013-02-15 17:52:00,
2013-02-15 12:53:00,66.8,57.9,29.96,NNE,19,2.0,10.0,73,0.00,,---,0.10,VWS V14.01,2013-02-15 17:53:00,
2013-02-15 12:57:00,66.4,58.6,29.96,NW,323,8.0,10.0,76,0.00,,---,0.10,VWS V14.01,2013-02-15 17:57:00,
2013-02-15 12:58:00,66.4,58.6,29.96,NW,321,5.0,10.0,76,0.00,,---,0.10,VWS V14.01,2013-02-15 17:58:00,
2013-02-15 13:02:00,66.4,59.0,29.96,NW,321,5.0,10.0,77,0.00,,---,0.10,VWS V14.01,2013-02-15 18:02:00,
2013-02-15 13:03:00,66.6,59.2,29.95,NW,321,4.0,5.0,77,0.00,,---,0.10,VWS V14.01,2013-02-15 18:03:00,
2013-02-15 13:07:00,67.3,59.1,29.95,NNW,328,1.0,6.0,75,0.00,,---,0.10,VWS V14.01,2013-02-15 18:07:00,
2013-02-15 13:08:00,67.4,58.8,29.95,NW,326,5.0,8.0,74,0.00,,---,0.10,VWS V14.01,2013-02-15 18:08:00,
2013-02-15 13:12:00,67.6,58.7,29.95,NW,323,0.0,9.0,73,0.00,,---,0.10,VWS V14.01,2013-02-15 18:12:00,
2013-02-15 13:13:00,67.8,58.8,29.95,NW,323,0.0,9.0,73,0.00,,---,0.10,VWS V14.01,2013-02-15 18:13:00,
2013-02-15 13:14:00,67.8,58.8,29.95,NW,323,0.0,9.0,73,0.00,,---,0.10,VWS V14.01,2013-02-15 18:14:00,
2013-02-15 13:17:00,67.9,58.9,29.95,NNW,339,5.0,9.0,73,0.00,,---,0.10,VWS V14.01,2013-02-15 18:17:00,
2013-02-15 13:18:00,68.1,58.7,29.94,NNW,340,0.0,9.0,72,0.00,,---,0.10,VWS V14.01,2013-02-15 18:18:00,
2013-02-15 13:19:00,68.1,58.7,29.94,NNW,340,0.0,9.0,72,0.00,,---,0.10,VWS V14.01,2013-02-15 18:19:00,
2013-02-15 13:22:00,67.9,58.5,29.94,NNW,336,0.0,9.0,72,0.00,,---,0.10,VWS V14.01,2013-02-15 18:22:00,
2013-02-15 13:23:00,68.1,58.7,29.94,NNW,336,0.0,9.0,72,0.00,,---,0.10,VWS V14.01,2013-02-15 18:23:00,
2013-02-15 13:24:00,68.1,58.7,29.94,NNW,343,4.0,9.0,72,0.00,,---,0.10,VWS V14.01,2013-02-15 18:24:00,
2013-02-15 13:27:00,67.4,58.1,29.94,NNW,344,0.0,9.0,72,0.00,,---,0.10,VWS V14.01,2013-02-15 18:27:00,
2013-02-15 13:28:00,67.3,58.7,29.94,NNW,345,0.0,9.0,74,0.00,,---,0.10,VWS V14.01,2013-02-15 18:28:00,
2013-02-15 13:29:00,67.3,58.7,29.94,NNW,345,0.0,9.0,74,0.00,,---,0.10,VWS V14.01,2013-02-15 18:29:00,
2013-02-15 13:32:00,67.3,58.7,29.94,NNW,344,5.0,9.0,74,0.00,,---,0.10,VWS V14.01,2013-02-15 18:32:00,
2013-02-15 13:34:00,67.3,58.7,29.93,NW,318,0.0,9.0,74,0.00,,---,0.10,VWS V14.01,2013-02-15 18:34:00,
2013-02-15 13:37:00,67.1,58.5,29.93,NW,319,0.0,9.0,74,0.00,,---,0.10,VWS V14.01,2013-02-15 18:37:00,
2013-02-15 13:39:00,67.3,59.1,29.93,NW,319,2.0,9.0,75,0.00,,---,0.10,VWS V14.01,2013-02-15 18:39:00,
2013-02-15 13:42:00,67.4,58.5,29.93,NW,323,0.0,9.0,73,0.00,,---,0.10,VWS V14.01,2013-02-15 18:42:00,
2013-02-15 13:44:00,67.4,58.5,29.93,NW,323,0.0,9.0,73,0.00,,---,0.10,VWS V14.01,2013-02-15 18:44:00,
2013-02-15 13:47:00,67.9,58.9,29.92,NNW,333,3.0,9.0,73,0.00,,---,0.10,VWS V14.01,2013-02-15 18:47:00,
2013-02-15 13:48:00,67.9,58.9,29.92,NNW,332,4.0,9.0,73,0.00,,---,0.10,VWS V14.01,2013-02-15 18:48:00,
2013-02-15 13:49:00,67.9,58.5,29.92,NNW,333,0.0,9.0,72,0.00,,---,0.10,VWS V14.01,2013-02-15 18:49:00,
2013-02-15 13:52:00,68.1,58.3,29.92,NE,34,2.0,9.0,71,0.00,,---,0.10,VWS V14.01,2013-02-15 18:52:00,
2013-02-15 13:54:00,67.9,58.5,29.92,NNE,29,0.0,9.0,72,0.00,,---,0.10,VWS V14.01,2013-02-15 18:54:00,
2013-02-15 13:57:00,68.4,59.0,29.92,NNW,337,0.0,9.0,72,0.00,,---,0.10,VWS V14.01,2013-02-15 18:57:00,
2013-02-15 13:58:00,68.4,58.6,29.92,NNW,337,2.0,9.0,71,0.00,,---,0.10,VWS V14.01,2013-02-15 18:58:00,
2013-02-15 13:59:00,68.6,58.8,29.92,NNW,336,2.0,9.0,71,0.00,,---,0.10,VWS V14.01,2013-02-15 18:59:00,
2013-02-15 14:02:00,68.8,58.2,29.92,North,10,1.0,9.0,69,0.00,,---,0.10,VWS V14.01,2013-02-15 19:02:00,
2013-02-15 14:03:00,68.6,58.4,29.92,North,10,0.0,9.0,70,0.00,,---,0.10,VWS V14.01,2013-02-15 19:03:00,
2013-02-15 14:04:00,68.6,58.4,29.92,North,4,1.0,1.0,70,0.00,,---,0.10,VWS V14.01,2013-02-15 19:04:00,
2013-02-15 14:07:00,68.8,59.0,29.92,North,355,3.0,6.0,71,0.00,,---,0.10,VWS V14.01,2013-02-15 19:07:00,
2013-02-15 14:08:00,68.8,59.0,29.92,North,355,3.0,6.0,71,0.00,,---,0.10,VWS V14.01,2013-02-15 19:08:00,
2013-02-15 14:09:00,68.9,58.7,29.92,North,354,2.0,6.0,70,0.00,,---,0.10,VWS V14.01,2013-02-15 19:09:00,
2013-02-15 14:12:00,69.1,58.1,29.92,NNW,343,6.0,7.0,68,0.00,,---,0.10,VWS V14.01,2013-02-15 19:12:00,
2013-02-15 14:13:00,69.1,58.1,29.92,NNW,343,5.0,7.0,68,0.00,,---,0.10,VWS V14.01,2013-02-15 19:13:00,
2013-02-15 14:14:00,69.3,59.1,29.92,NNW,343,0.0,7.0,70,0.00,,---,0.10,VWS V14.01,2013-02-15 19:14:00,
2013-02-15 14:17:00,69.6,58.6,29.91,SW,229,0.0,7.0,68,0.00,,---,0.10,VWS V14.01,2013-02-15 19:17:00,
2013-02-15 14:18:00,69.6,58.6,29.91,SW,229,2.0,7.0,68,0.00,,---,0.10,VWS V14.01,2013-02-15 19:18:00,
2013-02-15 14:19:00,69.8,58.4,29.91,SW,229,0.0,7.0,67,0.00,,---,0.10,VWS V14.01,2013-02-15 19:19:00,
2013-02-15 14:23:00,70.3,58.8,29.91,WSW,257,2.0,7.0,67,0.00,,---,0.10,VWS V14.01,2013-02-15 19:23:00,
2013-02-15 14:24:00,70.4,58.5,29.91,WSW,257,0.0,7.0,66,0.00,,---,0.10,VWS V14.01,2013-02-15 19:24:00,
2013-02-15 14:25:00,70.4,58.5,29.91,WSW,257,0.0,7.0,66,0.00,,---,0.10,VWS V14.01,2013-02-15 19:25:00,
2013-02-15 14:28:00,70.9,58.6,29.91,WNW,291,0.0,7.0,65,0.00,,---,0.10,VWS V14.01,2013-02-15 19:28:00,
2013-02-15 14:29:00,71.1,58.3,29.91,WNW,295,1.0,7.0,64,0.00,,---,0.10,VWS V14.01,2013-02-15 19:29:00,
2013-02-15 14:30:00,71.1,58.3,29.91,WNW,295,1.0,7.0,64,0.00,,---,0.10,VWS V14.01,2013-02-15 19:30:00,
2013-02-15 14:33:00,71.5,58.7,29.91,WNW,296,0.0,7.0,64,0.00,,---,0.10,VWS V14.01,2013-02-15 19:33:00,
2013-02-15 14:34:00,71.6,57.9,29.91,WNW,296,0.0,7.0,62,0.00,,---,0.10,VWS V14.01,2013-02-15 19:34:00,
2013-02-15 14:35:00,71.6,57.9,29.91,WNW,296,0.0,7.0,62,0.00,,---,0.10,VWS V14.01,2013-02-15 19:35:00,
2013-02-15 14:38:00,71.8,59.0,29.91,WNW,296,0.0,7.0,64,0.00,,---,0.10,VWS V14.01,2013-02-15 19:38:00,
2013-02-15 14:40:00,71.8,59.0,29.91,WNW,297,0.0,7.0,64,0.00,,---,0.10,VWS V14.01,2013-02-15 19:40:00,
2013-02-15 14:41:00,72.0,59.6,29.91,WNW,297,0.0,7.0,65,0.00,,---,0.10,VWS V14.01,2013-02-15 19:41:00,
2013-02-15 14:43:00,72.3,59.9,29.91,WNW,297,0.0,7.0,65,0.00,,---,0.10,VWS V14.01,2013-02-15 19:43:00,
2013-02-15 14:45:00,72.5,58.8,29.91,WNW,296,1.0,7.0,62,0.00,,---,0.10,VWS V14.01,2013-02-15 19:45:00,
2013-02-15 14:46:00,72.5,58.8,29.91,WNW,296,0.0,7.0,62,0.00,,---,0.10,VWS V14.01,2013-02-15 19:46:00,
2013-02-15 14:48:00,72.7,58.5,29.90,WNW,296,0.0,7.0,61,0.00,,---,0.10,VWS V14.01,2013-02-15 19:48:00,
2013-02-15 14:50:00,73.0,59.7,29.90,WNW,296,0.0,7.0,63,0.00,,---,0.10,VWS V14.01,2013-02-15 19:50:00,
2013-02-15 14:51:00,73.0,59.7,29.90,WNW,296,0.0,7.0,63,0.00,,---,0.10,VWS V14.01,2013-02-15 19:51:00,
2013-02-15 14:53:00,73.3,59.5,29.90,WNW,296,0.0,7.0,62,0.00,,---,0.10,VWS V14.01,2013-02-15 19:53:00,
2013-02-15 14:55:00,73.5,59.2,29.90,WNW,296,0.0,7.0,61,0.00,,---,0.10,VWS V14.01,2013-02-15 19:55:00,
2013-02-15 14:56:00,73.7,59.4,29.90,WNW,297,0.0,7.0,61,0.00,,---,0.10,VWS V14.01,2013-02-15 19:56:00,
2013-02-15 14:58:00,73.7,60.3,29.90,WNW,297,0.0,7.0,63,0.00,,---,0.10,VWS V14.01,2013-02-15 19:58:00,
2013-02-15 15:00:00,73.5,59.2,29.90,WNW,295,0.0,7.0,61,0.00,,---,0.10,VWS V14.01,2013-02-15 20:00:00,
2013-02-15 15:01:00,73.5,59.7,29.90,WNW,295,0.0,7.0,62,0.00,,---,0.10,VWS V14.01,2013-02-15 20:01:00,
2013-02-15 15:03:00,73.5,59.7,29.90,WNW,295,0.0,7.0,62,0.00,,---,0.10,VWS V14.01,2013-02-15 20:03:00,
2013-02-15 15:05:00,73.7,59.0,29.90,WNW,295,0.0,0.0,60,0.00,,---,0.10,VWS V14.01,2013-02-15 20:05:00,
2013-02-15 15:06:00,73.9,58.7,29.90,WNW,295,0.0,1.0,59,0.00,,---,0.10,VWS V14.01,2013-02-15 20:06:00,
2013-02-15 15:08:00,74.0,58.8,29.90,West,265,0.0,4.0,59,0.00,,---,0.10,VWS V14.01,2013-02-15 20:08:00,
2013-02-15 15:10:00,74.4,58.7,29.90,SSE,153,0.0,5.0,58,0.00,,---,0.10,VWS V14.01,2013-02-15 20:10:00,
2013-02-15 15:11:00,74.4,59.2,29.90,SSE,153,0.0,5.0,59,0.00,,---,0.10,VWS V14.01,2013-02-15 20:11:00,
2013-02-15 15:13:00,74.0,58.3,29.90,SSE,154,2.0,5.0,58,0.00,,---,0.10,VWS V14.01,2013-02-15 20:13:00,
2013-02-15 15:15:00,73.3,57.7,29.90,SSE,154,0.0,5.0,58,0.00,,---,0.10,VWS V14.01,2013-02-15 20:15:00,
2013-02-15 15:16:00,73.2,58.5,29.90,SSE,154,0.0,5.0,60,0.00,,---,0.10,VWS V14.01,2013-02-15 20:16:00,
2013-02-15 15:18:00,72.8,58.1,29.89,SSE,154,0.0,5.0,60,0.00,,---,0.10,VWS V14.01,2013-02-15 20:18:00,
2013-02-15 15:20:00,72.5,57.8,29.89,SSE,154,0.0,6.0,60,0.00,,---,0.10,VWS V14.01,2013-02-15 20:20:00,
2013-02-15 15:21:00,72.3,58.1,29.89,SSE,154,0.0,6.0,61,0.00,,---,0.10,VWS V14.01,2013-02-15 20:21:00,
2013-02-15 15:23:00,72.1,58.4,29.89,SSE,154,0.0,6.0,62,0.00,,---,0.10,VWS V14.01,2013-02-15 20:23:00,
2013-02-15 15:25:00,72.0,58.7,29.89,SSE,154,0.0,6.0,63,0.00,,---,0.10,VWS V14.01,2013-02-15 20:25:00,
2013-02-15 15:26:00,72.0,58.3,29.89,SSE,154,0.0,6.0,62,0.00,,---,0.10,VWS V14.01,2013-02-15 20:26:00,
2013-02-15 15:28:00,71.8,58.1,29.89,SSE,154,0.0,6.0,62,0.00,,---,0.10,VWS V14.01,2013-02-15 20:28:00,
2013-02-15 15:30:00,71.8,58.5,29.89,SSE,154,0.0,6.0,63,0.00,,---,0.10,VWS V14.01,2013-02-15 20:30:00,
2013-02-15 15:31:00,71.8,58.5,29.89,SSE,154,0.0,6.0,63,0.00,,---,0.10,VWS V14.01,2013-02-15 20:31:00,
2013-02-15 15:33:00,71.8,58.1,29.89,SSE,154,0.0,6.0,62,0.00,,---,0.10,VWS V14.01,2013-02-15 20:33:00,
2013-02-15 15:35:00,71.8,58.1,29.89,SSE,154,0.0,6.0,62,0.00,,---,0.10,VWS V14.01,2013-02-15 20:35:00,
2013-02-15 15:36:00,72.0,58.7,29.89,SSE,154,0.0,6.0,63,0.00,,---,0.10,VWS V14.01,2013-02-15 20:36:00,
2013-02-15 15:38:00,71.8,58.1,29.89,NW,310,4.0,6.0,62,0.00,,---,0.10,VWS V14.01,2013-02-15 20:38:00,
2013-02-15 15:40:00,71.3,58.5,29.89,NW,305,0.0,6.0,64,0.00,,---,0.10,VWS V14.01,2013-02-15 20:40:00,
2013-02-15 15:41:00,71.1,58.3,29.89,NW,306,4.0,6.0,64,0.00,,---,0.10,VWS V14.01,2013-02-15 20:41:00,
2013-02-15 15:43:00,70.9,58.6,29.89,NW,306,0.0,6.0,65,0.00,,---,0.10,VWS V14.01,2013-02-15 20:43:00,
2013-02-15 15:45:00,70.8,58.9,29.89,West,264,1.0,6.0,66,0.00,,---,0.10,VWS V14.01,2013-02-15 20:45:00,
2013-02-15 15:46:00,70.8,58.5,29.89,West,262,1.0,6.0,65,0.00,,---,0.10,VWS V14.01,2013-02-15 20:46:00,
2013-02-15 15:48:00,70.6,58.7,29.89,WSW,243,0.0,6.0,66,0.00,,---,0.10,VWS V14.01,2013-02-15 20:48:00,
2013-02-15 15:50:00,70.4,58.9,29.89,WSW,240,4.0,6.0,67,0.00,,---,0.10,VWS V14.01,2013-02-15 20:50:00,
2013-02-15 15:52:00,70.4,58.9,29.89,SW,218,0.0,6.0,67,0.00,,---,0.10,VWS V14.01,2013-02-15 20:52:00,
2013-02-15 15:53:00,70.3,58.4,29.89,SW,219,4.0,6.0,66,0.00,,---,0.10,VWS V14.01,2013-02-15 20:53:00,
2013-02-15 15:55:00,70.3,58.8,29.89,West,277,0.0,6.0,67,0.00,,---,0.10,VWS V14.01,2013-02-15 20:55:00,
2013-02-15 15:57:00,70.3,58.8,29.89,West,277,0.0,6.0,67,0.00,,---,0.10,VWS V14.01,2013-02-15 20:57:00,
2013-02-15 15:58:00,70.6,59.1,29.89,West,274,0.0,6.0,67,0.00,,---,0.10,VWS V14.01,2013-02-15 20:58:00,
2013-02-15 15:59:00,70.6,59.1,29.89,West,274,0.0,6.0,67,0.00,,---,0.10,VWS V14.01,2013-02-15 20:59:00,
2013-02-15 16:00:00,70.8,59.3,29.89,WNW,285,0.0,6.0,67,0.00,,---,0.10,VWS V14.01,2013-02-15 21:00:00,
2013-02-15 16:02:00,70.8,58.9,29.89,WNW,285,0.0,6.0,66,0.00,,---,0.10,VWS V14.01,2013-02-15 21:02:00,
2013-02-15 16:03:00,70.6,58.3,29.89,WNW,283,0.0,0.0,65,0.00,,---,0.10,VWS V14.01,2013-02-15 21:03:00,
2013-02-15 16:04:00,70.6,58.3,29.89,WNW,283,0.0,0.0,65,0.00,,---,0.10,VWS V14.01,2013-02-15 21:04:00,
2013-02-15 16:05:00,70.4,58.5,29.89,WNW,302,1.0,5.0,66,0.00,,---,0.10,VWS V14.01,2013-02-15 21:05:00,
2013-02-15 16:07:00,70.3,58.4,29.89,WNW,291,2.0,5.0,66,0.00,,---,0.10,VWS V14.01,2013-02-15 21:07:00,
2013-02-15 16:09:00,69.9,58.5,29.89,West,262,0.0,5.0,67,0.00,,---,0.10,VWS V14.01,2013-02-15 21:09:00,
2013-02-15 16:11:00,69.9,58.5,29.89,West,263,0.0,5.0,67,0.00,,---,0.10,VWS V14.01,2013-02-15 21:11:00,
2013-02-15 16:12:00,69.9,58.5,29.89,West,267,0.0,5.0,67,0.00,,---,0.10,VWS V14.01,2013-02-15 21:12:00,
2013-02-15 16:14:00,69.9,58.5,29.89,NW,304,0.0,5.0,67,0.00,,---,0.10,VWS V14.01,2013-02-15 21:14:00,
2013-02-15 16:16:00,69.8,57.9,29.89,WNW,299,2.0,6.0,66,0.00,,---,0.10,VWS V14.01,2013-02-15 21:16:00,
2013-02-15 16:17:00,69.6,58.2,29.89,WNW,289,3.0,6.0,67,0.00,,---,0.10,VWS V14.01,2013-02-15 21:17:00,
2013-02-15 16:19:00,69.6,58.2,29.89,WNW,284,0.0,6.0,67,0.00,,---,0.10,VWS V14.01,2013-02-15 21:19:00,
2013-02-15 16:21:00,69.6,58.2,29.89,NW,310,3.0,6.0,67,0.00,,---,0.10,VWS V14.01,2013-02-15 21:21:00,
2013-02-15 16:22:00,69.6,58.2,29.89,NW,310,0.0,6.0,67,0.00,,---,0.10,VWS V14.01,2013-02-15 21:22:00,
2013-02-15 16:24:00,69.4,58.0,29.89,NW,310,0.0,6.0,67,0.00,,---,0.10,VWS V14.01,2013-02-15 21:24:00,
2013-02-15 16:26:00,69.4,58.0,29.89,NW,310,0.0,6.0,67,0.00,,---,0.10,VWS V14.01,2013-02-15 21:26:00,
2013-02-15 16:27:00,69.4,58.0,29.89,NW,319,2.0,6.0,67,0.00,,---,0.10,VWS V14.01,2013-02-15 21:27:00,
2013-02-15 16:29:00,69.6,58.2,29.89,NW,307,0.0,7.0,67,0.00,,---,0.10,VWS V14.01,2013-02-15 21:29:00,
2013-02-15 16:31:00,69.4,58.0,29.89,NW,311,0.0,7.0,67,0.00,,---,0.10,VWS V14.01,2013-02-15 21:31:00,
2013-02-15 16:32:00,69.4,58.4,29.89,NW,311,4.0,7.0,68,0.00,,---,0.10,VWS V14.01,2013-02-15 21:32:00,
2013-02-15 16:34:00,69.3,58.7,29.88,WNW,296,0.0,7.0,69,0.00,,---,0.10,VWS V14.01,2013-02-15 21:34:00,
2013-02-15 16:36:00,69.3,58.3,29.88,NW,307,0.0,7.0,68,0.00,,---,0.10,VWS V14.01,2013-02-15 21:36:00,
2013-02-15 16:37:00,69.3,58.7,29.88,NW,318,4.0,8.0,69,0.00,,---,0.10,VWS V14.01,2013-02-15 21:37:00,
2013-02-15 16:39:00,69.3,58.3,29.88,NW,314,0.0,8.0,68,0.00,,---,0.10,VWS V14.01,2013-02-15 21:39:00,
2013-02-15 16:41:00,69.3,58.7,29.88,NW,311,0.0,8.0,69,0.00,,---,0.10,VWS V14.01,2013-02-15 21:41:00,
2013-02-15 16:42:00,69.4,58.8,29.88,NW,311,0.0,8.0,69,0.00,,---,0.10,VWS V14.01,2013-02-15 21:42:00,
2013-02-15 16:44:00,69.6,59.0,29.88,NW,311,7.0,8.0,69,0.00,,---,0.10,VWS V14.01,2013-02-15 21:44:00,
2013-02-15 16:46:00,69.4,58.4,29.88,NW,316,0.0,8.0,68,0.00,,---,0.10,VWS V14.01,2013-02-15 21:46:00,
2013-02-15 16:47:00,69.4,58.4,29.88,NW,315,0.0,8.0,68,0.00,,---,0.10,VWS V14.01,2013-02-15 21:47:00,
2013-02-15 16:49:00,69.3,58.3,29.88,WNW,289,0.0,8.0,68,0.00,,---,0.10,VWS V14.01,2013-02-15 21:49:00,
2013-02-15 16:51:00,69.1,58.1,29.88,WSW,257,5.0,8.0,68,0.00,,---,0.10,VWS V14.01,2013-02-15 21:51:00,
2013-02-15 16:52:00,68.9,57.9,29.88,West,259,1.0,8.0,68,0.00,,---,0.10,VWS V14.01,2013-02-15 21:52:00,
2013-02-15 16:54:00,68.6,58.0,29.88,WNW,300,0.0,9.0,69,0.00,,---,0.10,VWS V14.01,2013-02-15 21:54:00,
2013-02-15 16:56:00,68.6,58.0,29.88,NW,309,0.0,9.0,69,0.00,,---,0.10,VWS V14.01,2013-02-15 21:56:00,
2013-02-15 16:57:00,68.6,58.0,29.88,NW,309,0.0,9.0,69,0.00,,---,0.10,VWS V14.01,2013-02-15 21:57:00,
2013-02-15 16:59:00,68.4,57.8,29.88,WNW,293,0.0,9.0,69,0.00,,---,0.10,VWS V14.01,2013-02-15 21:59:00,
2013-02-15 17:01:00,68.4,57.8,29.88,WSW,247,0.0,9.0,69,0.00,,---,0.10,VWS V14.01,2013-02-15 22:01:00,
2013-02-15 17:02:00,68.4,57.8,29.88,WSW,247,0.0,9.0,69,0.00,,---,0.10,VWS V14.01,2013-02-15 22:02:00,
2013-02-15 17:04:00,68.4,58.2,29.88,NW,315,0.0,7.0,70,0.00,,---,0.10,VWS V14.01,2013-02-15 22:04:00,
2013-02-15 17:06:00,68.3,58.2,29.88,NW,314,0.0,7.0,70,0.00,,---,0.10,VWS V14.01,2013-02-15 22:06:00,
2013-02-15 17:07:00,68.3,58.2,29.88,NW,315,0.0,7.0,70,0.00,,---,0.10,VWS V14.01,2013-02-15 22:07:00,
2013-02-15 17:09:00,68.1,58.0,29.88,NW,315,2.0,7.0,70,0.00,,---,0.10,VWS V14.01,2013-02-15 22:09:00,
2013-02-15 17:11:00,67.9,57.8,29.88,WNW,283,6.0,7.0,70,0.00,,---,0.10,VWS V14.01,2013-02-15 22:11:00,
2013-02-15 17:12:00,67.8,57.7,29.88,WNW,288,0.0,7.0,70,0.00,,---,0.10,VWS V14.01,2013-02-15 22:12:00,
2013-02-15 17:14:00,67.6,57.9,29.88,WNW,293,0.0,7.0,71,0.00,,---,0.10,VWS V14.01,2013-02-15 22:14:00,
2013-02-15 17:16:00,67.6,57.9,29.88,NW,316,1.0,7.0,71,0.00,,---,0.10,VWS V14.01,2013-02-15 22:16:00,
2013-02-15 17:17:00,67.4,57.7,29.88,WNW,300,0.0,7.0,71,0.00,,---,0.10,VWS V14.01,2013-02-15 22:17:00,
2013-02-15 17:19:00,67.1,57.8,29.88,NW,320,0.0,7.0,72,0.00,,---,0.10,VWS V14.01,2013-02-15 22:19:00,
2013-02-15 17:20:00,67.1,57.8,29.88,NW,320,0.0,7.0,72,0.00,,---,0.10,VWS V14.01,2013-02-15 22:20:00,
2013-02-15 17:21:00,66.9,57.6,29.88,West,274,0.0,7.0,72,0.00,,---,0.10,VWS V14.01,2013-02-15 22:21:00,
2013-02-15 17:22:00,66.9,58.0,29.88,West,274,0.0,7.0,73,0.00,,---,0.10,VWS V14.01,2013-02-15 22:22:00,
2013-02-15 17:24:00,66.8,57.9,29.88,West,269,4.0,7.0,73,0.00,,---,0.10,VWS V14.01,2013-02-15 22:24:00,
2013-02-15 17:25:00,66.8,57.9,29.88,West,270,2.0,7.0,73,0.00,,---,0.10,VWS V14.01,2013-02-15 22:25:00,
2013-02-15 17:26:00,66.8,57.9,29.88,West,269,0.0,7.0,73,0.00,,---,0.10,VWS V14.01,2013-02-15 22:26:00,
2013-02-15 17:27:00,66.6,57.7,29.88,West,267,2.0,7.0,73,0.00,,---,0.10,VWS V14.01,2013-02-15 22:27:00,
2013-02-15 17:29:00,66.6,57.7,29.88,West,276,0.0,7.0,73,0.00,,---,0.10,VWS V14.01,2013-02-15 22:29:00,
2013-02-15 17:30:00,66.6,57.7,29.88,West,276,0.0,7.0,73,0.00,,---,0.10,VWS V14.01,2013-02-15 22:30:00,
2013-02-15 17:31:00,66.6,58.1,29.88,WNW,286,3.0,7.0,74,0.00,,---,0.10,VWS V14.01,2013-02-15 22:31:00,
2013-02-15 17:32:00,66.4,57.9,29.88,WNW,300,0.0,7.0,74,0.00,,---,0.10,VWS V14.01,2013-02-15 22:32:00,
2013-02-15 17:34:00,66.3,58.2,29.88,WNW,296,0.0,7.0,75,0.00,,---,0.10,VWS V14.01,2013-02-15 22:34:00,
2013-02-15 17:35:00,66.3,58.2,29.88,WNW,297,0.0,7.0,75,0.00,,---,0.10,VWS V14.01,2013-02-15 22:35:00,
2013-02-15 17:36:00,66.3,58.2,29.88,West,279,0.0,7.0,75,0.00,,---,0.10,VWS V14.01,2013-02-15 22:36:00,
2013-02-15 17:37:00,66.1,58.0,29.88,West,273,0.0,7.0,75,0.00,,---,0.10,VWS V14.01,2013-02-15 22:37:00,
2013-02-15 17:39:00,65.8,58.0,29.88,West,266,0.0,7.0,76,0.00,,---,0.10,VWS V14.01,2013-02-15 22:39:00,
2013-02-15 17:40:00,65.6,57.8,29.88,West,265,0.0,7.0,76,0.00,,---,0.10,VWS V14.01,2013-02-15 22:40:00,
2013-02-15 17:41:00,65.6,57.8,29.88,West,265,0.0,7.0,76,0.00,,---,0.10,VWS V14.01,2013-02-15 22:41:00,
2013-02-15 17:42:00,65.5,57.7,29.88,West,276,0.0,7.0,76,0.00,,---,0.10,VWS V14.01,2013-02-15 22:42:00,
2013-02-15 17:44:00,65.2,57.5,29.88,West,277,0.0,7.0,76,0.00,,---,0.10,VWS V14.01,2013-02-15 22:44:00,
2013-02-15 17:45:00,65.2,57.8,29.88,West,277,0.0,7.0,77,0.00,,---,0.10,VWS V14.01,2013-02-15 22:45:00,
2013-02-15 17:46:00,65.0,57.3,29.88,WNW,290,0.0,7.0,76,0.00,,---,0.10,VWS V14.01,2013-02-15 22:46:00,
2013-02-15 17:47:00,65.0,57.6,29.88,WNW,290,1.0,7.0,77,0.00,,---,0.10,VWS V14.01,2013-02-15 22:47:00,
2013-02-15 17:49:00,64.7,57.3,29.88,WNW,291,0.0,7.0,77,0.00,,---,0.10,VWS V14.01,2013-02-15 22:49:00,
2013-02-15 17:50:00,64.7,57.3,29.88,WNW,291,0.0,7.0,77,0.00,,---,0.10,VWS V14.01,2013-02-15 22:50:00,
2013-02-15 17:51:00,64.7,57.3,29.88,NW,309,0.0,7.0,77,0.00,,---,0.10,VWS V14.01,2013-02-15 22:51:00,
2013-02-15 17:52:00,64.5,57.1,29.88,West,276,0.0,7.0,77,0.00,,---,0.10,VWS V14.01,2013-02-15 22:52:00,
2013-02-15 17:55:00,64.3,57.3,29.88,West,280,4.0,7.0,78,0.00,,---,0.10,VWS V14.01,2013-02-15 22:55:00,
2013-02-15 17:56:00,64.2,57.2,29.88,WNW,287,3.0,7.0,78,0.00,,---,0.10,VWS V14.01,2013-02-15 22:56:00,
2013-02-15 17:57:00,64.2,57.2,29.88,WNW,299,0.0,7.0,78,0.00,,---,0.10,VWS V14.01,2013-02-15 22:57:00,
2013-02-15 18:00:00,64.0,57.0,29.88,WSW,258,0.0,7.0,78,0.00,,---,0.10,VWS V14.01,2013-02-15 23:00:00,
2013-02-15 18:01:00,63.9,57.3,29.88,West,264,0.0,7.0,79,0.00,,---,0.10,VWS V14.01,2013-02-15 23:01:00,
2013-02-15 18:04:00,63.7,57.1,29.88,West,264,0.0,0.0,79,0.00,,---,0.10,VWS V14.01,2013-02-15 23:04:00,
2013-02-15 18:05:00,63.7,57.1,29.88,West,264,0.0,0.0,79,0.00,,---,0.10,VWS V14.01,2013-02-15 23:05:00,
2013-02-15 18:06:00,63.7,57.1,29.88,West,264,0.0,1.0,79,0.00,,---,0.10,VWS V14.01,2013-02-15 23:06:00,
2013-02-15 18:10:00,63.5,57.2,29.88,West,264,0.0,1.0,80,0.00,,---,0.10,VWS V14.01,2013-02-15 23:10:00,
2013-02-15 18:11:00,63.5,57.2,29.88,West,265,2.0,2.0,80,0.00,,---,0.10,VWS V14.01,2013-02-15 23:11:00,
2013-02-15 18:15:00,63.2,56.9,29.88,West,266,0.0,4.0,80,0.00,,---,0.10,VWS V14.01,2013-02-15 23:15:00,
2013-02-15 18:16:00,63.2,56.9,29.88,West,266,0.0,4.0,80,0.00,,---,0.10,VWS V14.01,2013-02-15 23:16:00,
2013-02-15 18:20:00,63.1,56.8,29.89,West,266,0.0,4.0,80,0.00,,---,0.10,VWS V14.01,2013-02-15 23:20:00,
2013-02-15 18:21:00,62.9,56.6,29.89,West,266,0.0,4.0,80,0.00,,---,0.10,VWS V14.01,2013-02-15 23:21:00,
2013-02-15 18:25:00,62.7,56.5,29.89,West,266,0.0,4.0,80,0.00,,---,0.10,VWS V14.01,2013-02-15 23:25:00,
2013-02-15 18:26:00,62.7,56.8,29.89,West,266,0.0,4.0,81,0.00,,---,0.10,VWS V14.01,2013-02-15 23:26:00,
2013-02-15 18:30:00,62.6,56.7,29.89,West,266,0.0,4.0,81,0.00,,---,0.10,VWS V14.01,2013-02-15 23:30:00,
2013-02-15 18:31:00,62.4,56.5,29.89,West,266,0.0,4.0,81,0.00,,---,0.10,VWS V14.01,2013-02-15 23:31:00,
2013-02-15 18:35:00,62.3,56.4,29.89,West,266,0.0,4.0,81,0.00,,---,0.10,VWS V14.01,2013-02-15 23:35:00,
2013-02-15 18:37:00,62.1,56.2,29.89,West,266,0.0,4.0,81,0.00,,---,0.10,VWS V14.01,2013-02-15 23:37:00,
2013-02-15 18:40:00,62.0,56.5,29.89,West,266,0.0,4.0,82,0.00,,---,0.10,VWS V14.01,2013-02-15 23:40:00,
2013-02-15 18:42:00,61.8,56.2,29.89,West,266,0.0,4.0,82,0.00,,---,0.10,VWS V14.01,2013-02-15 23:42:00,
2013-02-15 18:45:00,61.6,56.1,29.89,West,266,0.0,4.0,82,0.00,,---,0.10,VWS V14.01,2013-02-15 23:45:00,
2013-02-15 18:47:00,61.6,56.1,29.89,West,266,0.0,4.0,82,0.00,,---,0.10,VWS V14.01,2013-02-15 23:47:00,
2013-02-15 18:50:00,61.5,56.3,29.89,West,266,0.0,4.0,83,0.00,,---,0.10,VWS V14.01,2013-02-15 23:50:00,
2013-02-15 18:52:00,61.3,56.1,29.89,West,266,0.0,4.0,83,0.00,,---,0.10,VWS V14.01,2013-02-15 23:52:00,
2013-02-15 18:55:00,61.2,56.0,29.89,West,266,0.0,4.0,83,0.00,,---,0.10,VWS V14.01,2013-02-15 23:55:00,
2013-02-15 18:56:00,61.2,56.0,29.89,West,266,0.0,4.0,83,0.00,,---,0.10,VWS V14.01,2013-02-15 23:56:00,
2013-02-15 18:57:00,61.0,55.8,29.89,West,266,0.0,4.0,83,0.00,,---,0.10,VWS V14.01,2013-02-15 23:57:00,
2013-02-15 19:00:00,60.9,55.7,29.89,West,266,0.0,4.0,83,0.00,,---,0.10,VWS V14.01,2013-02-16 00:00:00,
2013-02-15 19:01:00,60.9,55.7,29.89,West,266,0.0,4.0,83,0.00,,---,0.10,VWS V14.01,2013-02-16 00:01:00,
2013-02-15 19:02:00,60.9,55.7,29.89,West,266,0.0,4.0,83,0.00,,---,0.10,VWS V14.01,2013-02-16 00:02:00,
2013-02-15 19:05:00,60.5,55.3,29.89,West,266,0.0,0.0,83,0.00,,---,0.10,VWS V14.01,2013-02-16 00:05:00,
2013-02-15 19:06:00,60.5,55.3,29.89,West,266,0.0,0.0,83,0.00,,---,0.10,VWS V14.01,2013-02-16 00:06:00,
2013-02-15 19:07:00,60.5,55.3,29.89,West,266,0.0,0.0,83,0.00,,---,0.10,VWS V14.01,2013-02-16 00:07:00,
2013-02-15 19:10:00,60.4,55.2,29.89,West,266,0.0,0.0,83,0.00,,---,0.10,VWS V14.01,2013-02-16 00:10:00,
2013-02-15 19:11:00,60.4,55.2,29.89,West,266,0.0,0.0,83,0.00,,---,0.10,VWS V14.01,2013-02-16 00:11:00,
2013-02-15 19:12:00,60.2,55.0,29.89,West,266,0.0,0.0,83,0.00,,---,0.10,VWS V14.01,2013-02-16 00:12:00,
2013-02-15 19:15:00,60.2,55.0,29.89,West,266,0.0,1.0,83,0.00,,---,0.10,VWS V14.01,2013-02-16 00:15:00,
2013-02-15 19:16:00,60.1,54.9,29.89,West,266,0.0,1.0,83,0.00,,---,0.10,VWS V14.01,2013-02-16 00:16:00,
2013-02-15 19:17:00,60.1,54.9,29.88,West,266,0.0,1.0,83,0.00,,---,0.10,VWS V14.01,2013-02-16 00:17:00,
2013-02-15 19:20:00,59.9,54.7,29.88,West,266,0.0,1.0,83,0.00,,---,0.10,VWS V14.01,2013-02-16 00:20:00,
2013-02-15 19:21:00,59.9,54.7,29.88,West,266,0.0,1.0,83,0.00,,---,0.10,VWS V14.01,2013-02-16 00:21:00,
2013-02-15 19:22:00,59.9,54.7,29.88,West,266,0.0,1.0,83,0.00,,---,0.10,VWS V14.01,2013-02-16 00:22:00,
2013-02-15 19:25:00,59.8,54.6,29.88,West,266,0.0,1.0,83,0.00,,---,0.10,VWS V14.01,2013-02-16 00:25:00,
2013-02-15 19:26:00,59.8,54.6,29.88,West,266,0.0,1.0,83,0.00,,---,0.10,VWS V14.01,2013-02-16 00:26:00,
2013-02-15 19:27:00,59.8,54.6,29.88,West,266,0.0,1.0,83,0.00,,---,0.10,VWS V14.01,2013-02-16 00:27:00,
2013-02-15 19:30:00,59.6,54.4,29.88,West,266,0.0,1.0,83,0.00,,---,0.10,VWS V14.01,2013-02-16 00:30:00,
2013-02-15 19:31:00,59.6,54.4,29.88,West,266,0.0,1.0,83,0.00,,---,0.10,VWS V14.01,2013-02-16 00:31:00,
2013-02-15 19:32:00,59.6,54.4,29.89,West,266,0.0,1.0,83,0.00,,---,0.10,VWS V14.01,2013-02-16 00:32:00,
2013-02-15 19:35:00,59.6,54.4,29.89,West,266,0.0,1.0,83,0.00,,---,0.10,VWS V14.01,2013-02-16 00:35:00,
2013-02-15 19:36:00,59.5,54.3,29.89,West,266,0.0,1.0,83,0.00,,---,0.10,VWS V14.01,2013-02-16 00:36:00,
2013-02-15 19:37:00,59.5,54.3,29.89,West,266,0.0,1.0,83,0.00,,---,0.10,VWS V14.01,2013-02-16 00:37:00,
2013-02-15 19:40:00,59.3,54.2,29.89,West,266,0.0,1.0,83,0.00,,---,0.10,VWS V14.01,2013-02-16 00:40:00,
2013-02-15 19:41:00,59.3,54.2,29.89,West,266,0.0,1.0,83,0.00,,---,0.10,VWS V14.01,2013-02-16 00:41:00,
2013-02-15 19:42:00,59.2,54.0,29.89,West,266,0.0,1.0,83,0.00,,---,0.10,VWS V14.01,2013-02-16 00:42:00,
2013-02-15 19:45:00,59.0,53.8,29.89,West,266,0.0,1.0,83,0.00,,---,0.10,VWS V14.01,2013-02-16 00:45:00,
2013-02-15 19:46:00,59.0,53.8,29.89,West,266,0.0,1.0,83,0.00,,---,0.10,VWS V14.01,2013-02-16 00:46:00,
2013-02-15 19:48:00,59.0,54.2,29.89,West,266,0.0,1.0,84,0.00,,---,0.10,VWS V14.01,2013-02-16 00:48:00,
2013-02-15 19:50:00,58.9,54.4,29.89,West,266,0.0,1.0,85,0.00,,---,0.10,VWS V14.01,2013-02-16 00:50:00,
2013-02-15 19:51:00,58.9,54.4,29.89,West,266,0.0,1.0,85,0.00,,---,0.10,VWS V14.01,2013-02-16 00:51:00,
2013-02-15 19:53:00,58.7,54.2,29.89,West,266,0.0,1.0,85,0.00,,---,0.10,VWS V14.01,2013-02-16 00:53:00,
2013-02-15 19:55:00,58.6,54.1,29.89,West,266,0.0,1.0,85,0.00,,---,0.10,VWS V14.01,2013-02-16 00:55:00,
2013-02-15 19:56:00,58.6,54.1,29.89,West,266,0.0,1.0,85,0.00,,---,0.10,VWS V14.01,2013-02-16 00:56:00,
2013-02-15 19:58:00,58.4,53.9,29.89,West,266,0.0,1.0,85,0.00,,---,0.10,VWS V14.01,2013-02-16 00:58:00,
2013-02-15 20:00:00,58.3,54.1,29.89,West,266,0.0,1.0,86,0.00,,---,0.10,VWS V14.01,2013-02-16 01:00:00,
2013-02-15 20:01:00,58.3,54.1,29.89,West,266,0.0,1.0,86,0.00,,---,0.10,VWS V14.01,2013-02-16 01:01:00,
2013-02-15 20:03:00,58.1,53.9,29.89,West,266,0.0,1.0,86,0.00,,---,0.10,VWS V14.01,2013-02-16 01:03:00,
2013-02-15 20:05:00,58.0,53.8,29.89,West,266,0.0,0.0,86,0.00,,---,0.10,VWS V14.01,2013-02-16 01:05:00,
2013-02-15 20:06:00,58.0,53.8,29.89,West,266,0.0,0.0,86,0.00,,---,0.10,VWS V14.01,2013-02-16 01:06:00,
2013-02-15 20:08:00,57.8,53.7,29.89,West,266,0.0,0.0,86,0.00,,---,0.10,VWS V14.01,2013-02-16 01:08:00,
2013-02-15 20:10:00,57.6,53.8,29.89,West,266,0.0,0.0,87,0.00,,---,0.10,VWS V14.01,2013-02-16 01:10:00,
2013-02-15 20:11:00,57.6,53.8,29.89,West,266,0.0,0.0,87,0.00,,---,0.10,VWS V14.01,2013-02-16 01:11:00,
2013-02-15 20:13:00,57.5,53.7,29.89,West,266,0.0,0.0,87,0.00,,---,0.10,VWS V14.01,2013-02-16 01:13:00,
2013-02-15 20:16:00,57.3,53.5,29.89,West,266,0.0,0.0,87,0.00,,---,0.10,VWS V14.01,2013-02-16 01:16:00,
2013-02-15 20:18:00,57.2,53.7,29.89,West,266,0.0,0.0,88,0.00,,---,0.10,VWS V14.01,2013-02-16 01:18:00,
2013-02-15 20:21:00,57.2,53.7,29.89,West,266,0.0,0.0,88,0.00,,---,0.10,VWS V14.01,2013-02-16 01:21:00,
2013-02-15 20:23:00,57.0,53.5,29.89,West,266,0.0,0.0,88,0.00,,---,0.10,VWS V14.01,2013-02-16 01:23:00,
2013-02-15 20:26:00,56.9,53.7,29.89,West,266,0.0,0.0,89,0.00,,---,0.10,VWS V14.01,2013-02-16 01:26:00,
2013-02-15 20:28:00,56.9,53.7,29.89,West,266,0.0,0.0,89,0.00,,---,0.10,VWS V14.01,2013-02-16 01:28:00,
2013-02-15 20:31:00,56.9,53.7,29.89,West,266,0.0,0.0,89,0.00,,---,0.10,VWS V14.01,2013-02-16 01:31:00,
2013-02-15 20:33:00,56.7,53.8,29.89,West,266,0.0,0.0,90,0.00,,---,0.10,VWS V14.01,2013-02-16 01:33:00,
2013-02-15 20:36:00,56.7,53.8,29.89,West,266,0.0,0.0,90,0.00,,---,0.10,VWS V14.01,2013-02-16 01:36:00,
2013-02-15 20:37:00,56.7,53.8,29.89,West,266,0.0,0.0,90,0.00,,---,0.10,VWS V14.01,2013-02-16 01:37:00,
2013-02-15 20:38:00,56.6,53.7,29.89,West,266,0.0,0.0,90,0.00,,---,0.10,VWS V14.01,2013-02-16 01:38:00,
2013-02-15 20:41:00,56.6,53.7,29.89,West,266,0.0,0.0,90,0.00,,---,0.10,VWS V14.01,2013-02-16 01:41:00,
2013-02-15 20:42:00,56.5,53.6,29.89,West,266,0.0,0.0,90,0.00,,---,0.10,VWS V14.01,2013-02-16 01:42:00,
2013-02-15 20:43:00,56.5,53.6,29.89,West,266,0.0,0.0,90,0.00,,---,0.10,VWS V14.01,2013-02-16 01:43:00,
2013-02-15 20:46:00,56.3,53.4,29.89,West,266,0.0,0.0,90,0.00,,---,0.10,VWS V14.01,2013-02-16 01:46:00,
2013-02-15 20:47:00,56.3,53.4,29.89,West,266,0.0,0.0,90,0.00,,---,0.10,VWS V14.01,2013-02-16 01:47:00,
2013-02-15 20:48:00,56.3,53.7,29.89,West,266,0.0,0.0,91,0.00,,---,0.10,VWS V14.01,2013-02-16 01:48:00,
2013-02-15 20:51:00,56.2,53.6,29.89,West,266,0.0,0.0,91,0.00,,---,0.10,VWS V14.01,2013-02-16 01:51:00,
2013-02-15 20:52:00,56.2,53.6,29.89,West,266,0.0,0.0,91,0.00,,---,0.10,VWS V14.01,2013-02-16 01:52:00,
2013-02-15 20:54:00,56.2,53.6,29.89,West,266,0.0,0.0,91,0.00,,---,0.10,VWS V14.01,2013-02-16 01:54:00,
2013-02-15 20:56:00,56.0,53.4,29.89,West,266,0.0,0.0,91,0.00,,---,0.10,VWS V14.01,2013-02-16 01:56:00,
2013-02-15 20:57:00,56.0,53.4,29.89,West,266,0.0,0.0,91,0.00,,---,0.10,VWS V14.01,2013-02-16 01:57:00,
2013-02-15 20:59:00,56.0,53.4,29.89,West,266,0.0,0.0,91,0.00,,---,0.10,VWS V14.01,2013-02-16 01:59:00,
2013-02-15 21:01:00,56.0,53.4,29.89,West,266,0.0,0.0,91,0.00,,---,0.10,VWS V14.01,2013-02-16 02:01:00,
2013-02-15 21:02:00,56.0,53.4,29.89,West,266,0.0,0.0,91,0.00,,---,0.10,VWS V14.01,2013-02-16 02:02:00,
2013-02-15 21:04:00,56.0,53.4,29.90,West,266,0.0,0.0,91,0.00,,---,0.10,VWS V14.01,2013-02-16 02:04:00,
2013-02-15 21:06:00,56.2,53.9,29.90,West,266,0.0,0.0,92,0.00,,---,0.10,VWS V14.01,2013-02-16 02:06:00,
2013-02-15 21:07:00,56.2,53.9,29.90,West,266,0.0,0.0,92,0.00,,---,0.10,VWS V14.01,2013-02-16 02:07:00,
2013-02-15 21:09:00,56.3,54.0,29.90,West,266,0.0,0.0,92,0.00,,---,0.10,VWS V14.01,2013-02-16 02:09:00,
2013-02-15 21:11:00,56.3,54.0,29.90,West,266,0.0,0.0,92,0.00,,---,0.10,VWS V14.01,2013-02-16 02:11:00,
2013-02-15 21:12:00,56.3,54.0,29.90,West,266,0.0,0.0,92,0.00,,---,0.10,VWS V14.01,2013-02-16 02:12:00,
2013-02-15 21:14:00,56.3,54.0,29.90,West,266,0.0,0.0,92,0.00,,---,0.10,VWS V14.01,2013-02-16 02:14:00,
2013-02-15 21:16:00,56.3,54.0,29.90,West,266,0.0,0.0,92,0.00,,---,0.10,VWS V14.01,2013-02-16 02:16:00,
2013-02-15 21:17:00,56.3,54.0,29.90,West,266,0.0,0.0,92,0.00,,---,0.10,VWS V14.01,2013-02-16 02:17:00,
2013-02-15 21:19:00,56.3,54.0,29.90,West,266,0.0,0.0,92,0.00,,---,0.10,VWS V14.01,2013-02-16 02:19:00,
2013-02-15 21:21:00,56.3,54.3,29.90,West,266,0.0,0.0,93,0.00,,---,0.10,VWS V14.01,2013-02-16 02:21:00,
2013-02-15 21:22:00,56.3,54.3,29.90,West,266,0.0,0.0,93,0.00,,---,0.10,VWS V14.01,2013-02-16 02:22:00,
2013-02-15 21:24:00,56.5,54.5,29.90,West,266,0.0,0.0,93,0.00,,---,0.10,VWS V14.01,2013-02-16 02:24:00,
2013-02-15 21:26:00,56.5,54.5,29.90,West,266,0.0,0.0,93,0.00,,---,0.10,VWS V14.01,2013-02-16 02:26:00,
2013-02-15 21:27:00,56.6,54.6,29.90,West,266,0.0,0.0,93,0.00,,---,0.10,VWS V14.01,2013-02-16 02:27:00,
2013-02-15 21:29:00,56.6,54.6,29.90,West,266,0.0,0.0,93,0.00,,---,0.10,VWS V14.01,2013-02-16 02:29:00,
2013-02-15 21:32:00,56.7,54.7,29.90,West,266,0.0,0.0,93,0.00,,---,0.10,VWS V14.01,2013-02-16 02:32:00,
2013-02-15 21:34:00,56.9,54.9,29.91,West,266,0.0,0.0,93,0.00,,---,0.10,VWS V14.01,2013-02-16 02:34:00,
2013-02-15 21:37:00,57.0,55.0,29.91,West,266,0.0,0.0,93,0.00,,---,0.10,VWS V14.01,2013-02-16 02:37:00,
2013-02-15 21:39:00,57.0,55.0,29.91,West,266,0.0,0.0,93,0.00,,---,0.10,VWS V14.01,2013-02-16 02:39:00,
2013-02-15 21:42:00,57.2,55.2,29.91,West,266,0.0,0.0,93,0.00,,---,0.10,VWS V14.01,2013-02-16 02:42:00,
2013-02-15 21:44:00,57.2,55.2,29.91,West,266,0.0,0.0,93,0.00,,---,0.10,VWS V14.01,2013-02-16 02:44:00,
2013-02-15 21:47:00,57.3,55.0,29.91,West,266,0.0,0.0,92,0.00,,---,0.10,VWS V14.01,2013-02-16 02:47:00,
2013-02-15 21:49:00,57.3,55.0,29.91,West,266,0.0,0.0,92,0.00,,---,0.10,VWS V14.01,2013-02-16 02:49:00,
2013-02-15 21:52:00,57.5,55.2,29.91,West,266,0.0,1.0,92,0.00,,---,0.10,VWS V14.01,2013-02-16 02:52:00,
2013-02-15 21:54:00,57.5,55.2,29.91,West,266,0.0,1.0,92,0.00,,---,0.10,VWS V14.01,2013-02-16 02:54:00,
2013-02-15 21:57:00,57.5,55.2,29.91,West,266,0.0,1.0,92,0.00,,---,0.10,VWS V14.01,2013-02-16 02:57:00,
2013-02-15 21:59:00,57.6,55.0,29.91,West,266,0.0,1.0,91,0.00,,---,0.10,VWS V14.01,2013-02-16 02:59:00,
2013-02-15 22:02:00,57.6,55.0,29.91,West,266,0.0,1.0,91,0.00,,---,0.10,VWS V14.01,2013-02-16 03:02:00,
2013-02-15 22:04:00,57.8,55.2,29.91,West,266,0.0,0.0,91,0.00,,---,0.10,VWS V14.01,2013-02-16 03:04:00,
2013-02-15 22:07:00,57.8,54.9,29.91,West,266,0.0,0.0,90,0.00,,---,0.10,VWS V14.01,2013-02-16 03:07:00,
2013-02-15 22:09:00,57.8,54.9,29.91,West,266,0.0,1.0,90,0.00,,---,0.10,VWS V14.01,2013-02-16 03:09:00,
2013-02-15 22:12:00,57.8,54.9,29.91,West,266,0.0,1.0,90,0.00,,---,0.10,VWS V14.01,2013-02-16 03:12:00,
2013-02-15 22:13:00,57.8,54.9,29.91,West,266,0.0,1.0,90,0.00,,---,0.10,VWS V14.01,2013-02-16 03:13:00,
2013-02-15 22:14:00,57.8,54.9,29.91,West,266,0.0,1.0,90,0.00,,---,0.10,VWS V14.01,2013-02-16 03:14:00,
2013-02-15 22:17:00,57.8,54.9,29.91,West,266,0.0,1.0,90,0.00,,---,0.10,VWS V14.01,2013-02-16 03:17:00,
2013-02-15 22:18:00,57.8,54.9,29.91,West,266,0.0,1.0,90,0.00,,---,0.10,VWS V14.01,2013-02-16 03:18:00,
2013-02-15 22:20:00,57.8,54.6,29.91,West,266,0.0,1.0,89,0.00,,---,0.10,VWS V14.01,2013-02-16 03:20:00,
2013-02-15 22:22:00,58.0,54.8,29.91,West,266,0.0,1.0,89,0.00,,---,0.10,VWS V14.01,2013-02-16 03:22:00,
2013-02-15 22:23:00,57.8,54.6,29.91,West,266,0.0,1.0,89,0.00,,---,0.10,VWS V14.01,2013-02-16 03:23:00,
2013-02-15 22:25:00,57.8,54.6,29.91,West,266,0.0,1.0,89,0.00,,---,0.10,VWS V14.01,2013-02-16 03:25:00,
2013-02-15 22:27:00,57.8,54.6,29.91,West,266,0.0,1.0,89,0.00,,---,0.10,VWS V14.01,2013-02-16 03:27:00,
2013-02-15 22:28:00,57.8,54.6,29.91,West,266,0.0,1.0,89,0.00,,---,0.10,VWS V14.01,2013-02-16 03:28:00,
2013-02-15 22:30:00,57.8,54.6,29.91,West,266,0.0,1.0,89,0.00,,---,0.10,VWS V14.01,2013-02-16 03:30:00,
2013-02-15 22:32:00,58.0,54.8,29.91,West,266,0.0,1.0,89,0.00,,---,0.10,VWS V14.01,2013-02-16 03:32:00,
2013-02-15 22:33:00,58.0,54.8,29.91,West,266,0.0,1.0,89,0.00,,---,0.10,VWS V14.01,2013-02-16 03:33:00,
2013-02-15 22:35:00,58.0,54.8,29.91,West,266,0.0,1.0,89,0.00,,---,0.10,VWS V14.01,2013-02-16 03:35:00,
2013-02-15 22:37:00,58.0,54.5,29.91,West,266,0.0,1.0,88,0.00,,---,0.10,VWS V14.01,2013-02-16 03:37:00,
2013-02-15 22:38:00,58.0,54.5,29.91,West,266,1.0,1.0,88,0.00,,---,0.10,VWS V14.01,2013-02-16 03:38:00,
2013-02-15 22:40:00,58.0,54.5,29.91,West,266,0.0,2.0,88,0.00,,---,0.10,VWS V14.01,2013-02-16 03:40:00,
2013-02-15 22:42:00,58.0,54.5,29.91,West,266,0.0,2.0,88,0.00,,---,0.10,VWS V14.01,2013-02-16 03:42:00,
2013-02-15 22:43:00,58.0,54.5,29.91,West,266,0.0,2.0,88,0.00,,---,0.10,VWS V14.01,2013-02-16 03:43:00,
2013-02-15 22:45:00,58.0,54.5,29.91,West,266,0.0,2.0,88,0.00,,---,0.10,VWS V14.01,2013-02-16 03:45:00,
2013-02-15 22:47:00,58.0,54.5,29.91,West,266,0.0,2.0,88,0.00,,---,0.10,VWS V14.01,2013-02-16 03:47:00,
2013-02-15 22:48:00,58.0,54.5,29.91,West,266,0.0,2.0,88,0.00,,---,0.10,VWS V14.01,2013-02-16 03:48:00,
2013-02-15 22:50:00,58.0,54.5,29.91,West,266,0.0,2.0,88,0.00,,---,0.10,VWS V14.01,2013-02-16 03:50:00,
2013-02-15 22:52:00,58.0,54.5,29.91,West,266,0.0,2.0,88,0.00,,---,0.10,VWS V14.01,2013-02-16 03:52:00,
2013-02-15 22:53:00,58.0,54.5,29.91,West,266,0.0,2.0,88,0.00,,---,0.10,VWS V14.01,2013-02-16 03:53:00,
2013-02-15 22:55:00,58.0,54.5,29.91,West,266,0.0,2.0,88,0.00,,---,0.10,VWS V14.01,2013-02-16 03:55:00,
2013-02-15 22:57:00,58.1,54.6,29.91,West,266,0.0,2.0,88,0.00,,---,0.10,VWS V14.01,2013-02-16 03:57:00,
2013-02-15 22:58:00,58.1,54.6,29.91,West,266,0.0,2.0,88,0.00,,---,0.10,VWS V14.01,2013-02-16 03:58:00,
2013-02-15 23:00:00,58.1,54.6,29.91,West,266,0.0,2.0,88,0.00,,---,0.10,VWS V14.01,2013-02-16 04:00:00,
2013-02-15 23:02:00,58.1,54.6,29.91,West,266,0.0,2.0,88,0.00,,---,0.10,VWS V14.01,2013-02-16 04:02:00,
2013-02-15 23:03:00,58.1,54.6,29.91,West,266,0.0,0.0,88,0.00,,---,0.10,VWS V14.01,2013-02-16 04:03:00,
2013-02-15 23:05:00,58.1,54.6,29.91,West,266,0.0,0.0,88,0.00,,---,0.10,VWS V14.01,2013-02-16 04:05:00,
2013-02-15 23:07:00,58.1,54.6,29.91,West,266,0.0,1.0,88,0.00,,---,0.10,VWS V14.01,2013-02-16 04:07:00,
2013-02-15 23:08:00,58.1,54.6,29.91,West,266,0.0,1.0,88,0.00,,---,0.10,VWS V14.01,2013-02-16 04:08:00,
2013-02-15 23:10:00,58.1,54.6,29.91,West,266,0.0,2.0,88,0.00,,---,0.10,VWS V14.01,2013-02-16 04:10:00,
2013-02-15 23:12:00,58.1,54.6,29.91,West,266,0.0,2.0,88,0.00,,---,0.10,VWS V14.01,2013-02-16 04:12:00,
2013-02-15 23:13:00,58.1,54.6,29.91,West,266,0.0,2.0,88,0.00,,---,0.10,VWS V14.01,2013-02-16 04:13:00,
2013-02-15 23:14:00,58.0,54.5,29.91,West,266,0.0,2.0,88,0.00,,---,0.10,VWS V14.01,2013-02-16 04:14:00,
2013-02-15 23:15:00,58.0,54.5,29.91,West,266,0.0,2.0,88,0.00,,---,0.10,VWS V14.01,2013-02-16 04:15:00,
2013-02-15 23:17:00,58.0,54.5,29.90,West,266,0.0,2.0,88,0.00,,---,0.10,VWS V14.01,2013-02-16 04:17:00,
2013-02-15 23:18:00,58.0,54.5,29.90,West,266,0.0,2.0,88,0.00,,---,0.10,VWS V14.01,2013-02-16 04:18:00,
2013-02-15 23:19:00,58.0,54.5,29.90,West,266,0.0,2.0,88,0.00,,---,0.10,VWS V14.01,2013-02-16 04:19:00,
2013-02-15 23:20:00,58.0,54.5,29.90,West,266,0.0,2.0,88,0.00,,---,0.10,VWS V14.01,2013-02-16 04:20:00,
2013-02-15 23:22:00,58.0,54.5,29.90,West,266,0.0,2.0,88,0.00,,---,0.10,VWS V14.01,2013-02-16 04:22:00,
2013-02-15 23:23:00,58.0,54.5,29.90,West,266,0.0,2.0,88,0.00,,---,0.10,VWS V14.01,2013-02-16 04:23:00,
2013-02-15 23:24:00,58.0,54.5,29.90,West,266,0.0,2.0,88,0.00,,---,0.10,VWS V14.01,2013-02-16 04:24:00,
2013-02-15 23:25:00,58.0,54.5,29.90,West,266,0.0,2.0,88,0.00,,---,0.10,VWS V14.01,2013-02-16 04:25:00,
2013-02-15 23:27:00,58.0,54.5,29.90,West,266,0.0,2.0,88,0.00,,---,0.10,VWS V14.01,2013-02-16 04:27:00,
2013-02-15 23:28:00,58.0,54.5,29.90,West,266,0.0,2.0,88,0.00,,---,0.10,VWS V14.01,2013-02-16 04:28:00,
2013-02-15 23:29:00,58.0,54.5,29.90,West,266,0.0,2.0,88,0.00,,---,0.10,VWS V14.01,2013-02-16 04:29:00,
2013-02-15 23:30:00,58.0,54.5,29.90,West,266,0.0,2.0,88,0.00,,---,0.10,VWS V14.01,2013-02-16 04:30:00,
2013-02-15 23:32:00,58.0,54.8,29.91,West,266,0.0,2.0,89,0.00,,---,0.10,VWS V14.01,2013-02-16 04:32:00,
2013-02-15 23:33:00,58.0,54.8,29.91,West,266,0.0,2.0,89,0.00,,---,0.10,VWS V14.01,2013-02-16 04:33:00,
2013-02-15 23:34:00,58.0,54.8,29.91,West,266,0.0,2.0,89,0.00,,---,0.10,VWS V14.01,2013-02-16 04:34:00,
2013-02-15 23:35:00,58.0,54.8,29.91,West,266,0.0,2.0,89,0.00,,---,0.10,VWS V14.01,2013-02-16 04:35:00,
2013-02-15 23:37:00,58.0,54.8,29.91,West,266,0.0,2.0,89,0.00,,---,0.10,VWS V14.01,2013-02-16 04:37:00,
2013-02-15 23:38:00,58.0,54.8,29.91,West,266,0.0,2.0,89,0.00,,---,0.10,VWS V14.01,2013-02-16 04:38:00,
2013-02-15 23:39:00,58.0,54.8,29.91,West,266,0.0,2.0,89,0.00,,---,0.10,VWS V14.01,2013-02-16 04:39:00,
2013-02-15 23:40:00,58.0,54.8,29.91,West,266,0.0,2.0,89,0.00,,---,0.10,VWS V14.01,2013-02-16 04:40:00,
2013-02-15 23:43:00,58.0,54.8,29.91,West,266,0.0,2.0,89,0.00,,---,0.10,VWS V14.01,2013-02-16 04:43:00,
2013-02-15 23:44:00,58.0,54.8,29.91,West,266,0.0,2.0,89,0.00,,---,0.10,VWS V14.01,2013-02-16 04:44:00,
2013-02-15 23:45:00,58.0,54.8,29.91,West,266,0.0,2.0,89,0.00,,---,0.10,VWS V14.01,2013-02-16 04:45:00,
2013-02-15 23:48:00,58.0,54.8,29.91,West,266,0.0,2.0,89,0.00,,---,0.10,VWS V14.01,2013-02-16 04:48:00,
2013-02-15 23:49:00,58.0,54.8,29.91,West,266,0.0,2.0,89,0.00,,---,0.10,VWS V14.01,2013-02-16 04:49:00,
2013-02-15 23:50:00,58.0,54.8,29.91,West,266,0.0,2.0,89,0.00,,---,0.10,VWS V14.01,2013-02-16 04:50:00,
2013-02-15 23:53:00,58.0,54.8,29.91,West,266,0.0,2.0,89,0.00,,---,0.10,VWS V14.01,2013-02-16 04:53:00,
2013-02-15 23:54:00,58.0,54.8,29.91,West,266,0.0,2.0,89,0.00,,---,0.10,VWS V14.01,2013-02-16 04:54:00,
2013-02-15 23:55:00,58.0,54.8,29.91,West,266,0.0,2.0,89,0.00,,---,0.10,VWS V14.01,2013-02-16 04:55:00,
2013-02-15 23:58:00,58.0,54.8,29.91,West,266,0.0,2.0,89,0.00,,---,0.10,VWS V14.01,2013-02-16 04:58:00,
2013-02-15 23:59:00,58.0,54.8,29.91,West,266,0.0,2.0,89,0.00,,---,0.10,VWS V14.01,2013-02-16 04:59:00,